M I D A S
Marine Information and Data Acquisition System
Tripno 2303 of the Zeeleeuw from 2012-03-06 08:06:39 to 2012-03-06 15:37:02
Back to CruiseResearch ActivitiesStationsMapUnderway DataData graphs

EquipmentUnitsComment
TimeDGPSUTC
LatitudeDGPSDM.mWGS84
LongitudeDGPSDM.mWGS84
TemperatureSBE03/SBE38deg celciusITS90
ConductivitySBE21S/mITS90
SalinitySBE21 Practical Salinity Units
ChlorophylAChelsea fluorimeterg/lCalibrated in Aceton
Missing or incorrect values are displayed as -999
Sea surface data collected by the RV Zeeleeuw from 2012-03-06 07:05:44 to 2012-03-06 15:48:34
                                                                                    Next 1000 lines
Time Latitude Longitude Temperature Conductivity Salinity ChlorophylA
2012-03-06 07:05:53 51°13.638 2°56.016 12.144 1.053 6.829804 -2.458615
2012-03-06 07:05:59 51°13.639 2°56.016 12.1506 1.053 6.829804 -2.458615
2012-03-06 07:06:04 51°13.639 2°56.016 12.1513 1.053 6.829804 -2.458615
2012-03-06 07:06:09 51°13.64 2°56.016 12.1541 1.053 6.829804 -2.458615
2012-03-06 07:06:14 51°13.639 2°56.015 12.149 1.053 6.829804 -2.458615
2012-03-06 07:06:19 51°13.64 2°56.015 12.1613 1.053 6.829676 -2.458615
2012-03-06 07:06:24 51°13.64 2°56.015 12.1735 1.053 6.829676 -2.458615
2012-03-06 07:06:29 51°13.639 2°56.015 12.1752 1.053 6.829804 -2.458615
2012-03-06 07:06:34 51°13.639 2°56.015 12.1615 1.053 6.829804 -2.458615
2012-03-06 07:06:39 51°13.639 2°56.015 12.1773 1.053 6.829804 -2.458615
2012-03-06 07:06:44 51°13.64 2°56.015 12.174 1.053 6.829804 -2.458615
2012-03-06 07:06:50 51°13.639 2°56.015 12.1652 1.053 6.829804 -2.458615
2012-03-06 07:06:55 51°13.639 2°56.016 12.1691 1.053 6.829804 -2.458615
2012-03-06 07:07:00 51°13.639 2°56.016 12.1791 1.053 6.829676 -2.458615
2012-03-06 07:07:05 51°13.639 2°56.016 12.1688 1.053103 6.830396 -2.458615
2012-03-06 07:07:08 51°13.64 2°56.016 12.179 1.053 6.829676 -2.458615
2012-03-06 07:07:15 51°13.64 2°56.016 12.1777 1.053103 6.830396 -2.458615
2012-03-06 07:07:20 51°13.639 2°56.016 12.186 1.053103 6.830396 -2.458615
2012-03-06 07:07:25 51°13.639 2°56.016 12.1697 1.053103 6.830396 -2.458615
2012-03-06 07:07:30 51°13.639 2°56.016 12.1561 1.053 6.829676 -2.458615
2012-03-06 07:07:35 51°13.639 2°56.016 12.1568 1.053103 6.830396 -2.458615
2012-03-06 07:07:40 51°13.639 2°56.016 12.1568 1.053103 6.830396 -2.458615
2012-03-06 07:07:45 51°13.639 2°56.016 12.1604 1.053 6.829676 -2.458615
2012-03-06 07:07:49 51°13.639 2°56.016 12.1684 1.053103 6.830396 -2.458615
2012-03-06 07:07:55 51°13.639 2°56.016 12.1753 1.053103 6.830396 -2.458615
2012-03-06 07:08:00 51°13.639 2°56.016 12.1786 1.053103 6.830396 -2.458615
2012-03-06 07:08:05 51°13.639 2°56.016 12.1733 1.053103 6.830396 -2.458615
2012-03-06 07:08:09 51°13.639 2°56.016 12.1886 1.053103 6.830396 -2.458615
2012-03-06 07:08:15 51°13.639 2°56.016 12.1886 1.053103 6.830268 -2.458615
2012-03-06 07:08:20 51°13.639 2°56.016 12.1759 1.053103 6.830268 -2.458615
2012-03-06 07:08:25 51°13.64 2°56.016 12.1689 1.053103 6.830268 -2.458615
2012-03-06 07:08:30 51°13.639 2°56.016 12.1083 1.053103 6.830268 -2.458615
2012-03-06 07:08:35 51°13.639 2°56.016 12.1378 1.053103 6.830268 -2.458615
2012-03-06 07:08:40 51°13.64 2°56.016 12.1575 1.053103 6.830268 -2.458615
2012-03-06 07:08:45 51°13.639 2°56.016 12.1343 1.053103 6.830396 -2.458615
2012-03-06 07:08:49 51°13.639 2°56.016 12.1514 1.053103 6.830396 -2.458615
2012-03-06 07:08:55 51°13.64 2°56.016 12.1619 1.053103 6.830396 -2.458615
2012-03-06 07:09:00 51°13.639 2°56.016 12.16 1.053103 6.830396 -2.458615
2012-03-06 07:09:05 51°13.639 2°56.016 12.1636 1.053103 6.830268 -2.458615
2012-03-06 07:09:10 51°13.639 2°56.016 12.1615 1.053103 6.830268 -2.458615
2012-03-06 07:09:15 51°13.639 2°56.016 12.1472 1.053103 6.830268 -2.458615
2012-03-06 07:09:20 51°13.639 2°56.016 12.1414 1.053103 6.830268 -2.458615
2012-03-06 07:09:25 51°13.639 2°56.016 12.1432 1.053103 6.830268 -2.458615
2012-03-06 07:09:30 51°13.639 2°56.016 12.1371 1.053103 6.830268 -2.458615
2012-03-06 07:09:35 51°13.639 2°56.016 12.157 1.053103 6.830268 -2.458615
2012-03-06 07:09:40 51°13.639 2°56.017 12.1881 1.053103 6.830268 -2.458615
2012-03-06 07:09:45 51°13.639 2°56.016 12.1695 1.053103 6.830268 -2.458615
2012-03-06 07:09:50 51°13.639 2°56.016 12.17 1.053103 6.830268 -2.458615
2012-03-06 07:09:55 51°13.639 2°56.017 12.1487 1.053103 6.830268 -2.458615
2012-03-06 07:10:00 51°13.639 2°56.017 12.145 1.053103 6.830268 -2.458615
2012-03-06 07:10:05 51°13.639 2°56.016 12.1618 1.053103 6.830268 -2.458615
2012-03-06 07:10:10 51°13.638 2°56.016 12.1622 1.053103 6.830268 -2.458615
2012-03-06 07:10:15 51°13.638 2°56.017 12.1622 1.053103 6.830268 -2.458615
2012-03-06 07:10:20 51°13.638 2°56.017 12.1566 1.053103 6.83014 -2.458615
2012-03-06 07:10:25 51°13.638 2°56.017 12.1547 1.053103 6.83014 -2.458615
2012-03-06 07:10:30 51°13.638 2°56.017 12.1506 1.053103 6.83014 -2.458615
2012-03-06 07:10:35 51°13.638 2°56.017 12.1484 1.053103 6.83014 -2.458615
2012-03-06 07:10:40 51°13.638 2°56.017 12.109 1.053103 6.83014 -2.458615
2012-03-06 07:10:45 51°13.638 2°56.017 12.0592 1.053103 6.830012 -2.458615
2012-03-06 07:10:49 51°13.638 2°56.016 12.0266 1.053103 6.830012 -2.458615
2012-03-06 07:10:55 51°13.638 2°56.016 12.0821 1.053103 6.830012 -2.458615
2012-03-06 07:11:00 51°13.638 2°56.016 12.1056 1.053103 6.830012 -2.458615
2012-03-06 07:11:05 51°13.638 2°56.016 12.1778 1.053103 6.830012 -2.458615
2012-03-06 07:11:10 51°13.638 2°56.016 12.2029 1.053103 6.83014 -2.458615
2012-03-06 07:11:15 51°13.638 2°56.016 12.1998 1.053103 6.83014 -2.458615
2012-03-06 07:11:20 51°13.638 2°56.016 12.1972 1.053103 6.83014 -2.458615
2012-03-06 07:11:25 51°13.638 2°56.016 12.1845 1.053103 6.83014 -2.458615
2012-03-06 07:11:30 51°13.638 2°56.016 12.1827 1.053103 6.83014 -2.458615
2012-03-06 07:11:35 51°13.638 2°56.016 12.1822 1.053103 6.83014 -2.458615
2012-03-06 07:11:40 51°13.638 2°56.016 12.1643 1.053103 6.83014 -2.458615
2012-03-06 07:11:45 51°13.638 2°56.016 12.1468 1.053103 6.83014 -2.458615
2012-03-06 07:11:50 51°13.638 2°56.016 12.1321 1.053103 6.83014 -2.458615
2012-03-06 07:11:55 51°13.638 2°56.016 12.1193 1.053103 6.83014 -2.458615
2012-03-06 07:12:00 51°13.638 2°56.016 12.1291 1.053103 6.830012 -2.458615
2012-03-06 07:12:05 51°13.638 2°56.016 12.161 1.053103 6.83014 -2.458615
2012-03-06 07:12:10 51°13.638 2°56.016 12.1671 1.053103 6.83014 -2.458615
2012-03-06 07:12:15 51°13.638 2°56.016 12.1584 1.053103 6.83014 -2.458615
2012-03-06 07:12:20 51°13.638 2°56.016 12.1756 1.053103 6.83014 -2.458615
2012-03-06 07:12:25 51°13.638 2°56.016 12.1664 1.053103 6.83014 -2.458615
2012-03-06 07:12:30 51°13.638 2°56.017 12.164 1.053103 6.83014 -2.458615
2012-03-06 07:12:35 51°13.638 2°56.016 12.1605 1.053103 6.830012 -2.458615
2012-03-06 07:12:40 51°13.637 2°56.016 12.1787 1.053103 6.83014 -2.458615
2012-03-06 07:12:45 51°13.637 2°56.017 12.1915 1.053206 6.83086 -2.458615
2012-03-06 07:12:50 51°13.637 2°56.017 12.1935 1.053103 6.83014 -2.458615
2012-03-06 07:12:55 51°13.638 2°56.017 12.1938 1.053103 6.83014 -2.458615
2012-03-06 07:13:00 51°13.638 2°56.017 12.1912 1.053206 6.83086 -2.458615
2012-03-06 07:13:05 51°13.637 2°56.017 12.194 1.053206 6.83086 -2.458615
2012-03-06 07:13:09 51°13.638 2°56.017 12.1851 1.053206 6.83086 -2.458615
2012-03-06 07:13:15 51°13.638 2°56.017 12.2061 1.053206 6.83086 -2.458615
2012-03-06 07:13:20 51°13.638 2°56.017 12.1896 1.053206 6.83086 -2.458615
2012-03-06 07:13:25 51°13.638 2°56.017 12.1852 1.053206 6.83086 -2.458615
2012-03-06 07:13:30 51°13.638 2°56.017 12.1758 1.053206 6.83086 -2.458615
2012-03-06 07:13:35 51°13.638 2°56.017 12.1766 1.053206 6.83086 -2.458615
2012-03-06 07:13:40 51°13.638 2°56.017 12.17 1.053206 6.83086 -2.458615
2012-03-06 07:13:45 51°13.638 2°56.017 12.1477 1.053206 6.83086 -2.458615
2012-03-06 07:13:50 51°13.637 2°56.017 12.1577 1.053206 6.830732 -2.458615
2012-03-06 07:13:55 51°13.637 2°56.016 12.1465 1.053206 6.830732 -2.458615
2012-03-06 07:14:00 51°13.637 2°56.016 12.1741 1.053206 6.830732 -2.458615
2012-03-06 07:14:05 51°13.637 2°56.016 12.167 1.053206 6.83086 -2.458615
2012-03-06 07:14:10 51°13.638 2°56.016 12.1688 1.053206 6.830732 -2.458615
2012-03-06 07:14:15 51°13.638 2°56.016 12.1725 1.053206 6.830732 -2.458615
2012-03-06 07:14:20 51°13.637 2°56.016 12.1711 1.053206 6.830732 -2.458615
2012-03-06 07:14:25 51°13.637 2°56.016 12.1708 1.053206 6.830732 -2.458615
2012-03-06 07:14:30 51°13.638 2°56.016 12.158 1.053206 6.830732 -2.458615
2012-03-06 07:14:35 51°13.638 2°56.016 12.166 1.053206 6.830732 -2.458615
2012-03-06 07:14:40 51°13.638 2°56.016 12.1535 1.053206 6.830732 -2.458615
2012-03-06 07:14:45 51°13.638 2°56.016 12.1739 1.053206 6.830732 -2.458615
2012-03-06 07:14:50 51°13.637 2°56.016 12.1609 1.053206 6.830732 -2.458615
2012-03-06 07:14:55 51°13.637 2°56.016 12.1548 1.053206 6.830732 -2.458615
2012-03-06 07:14:59 51°13.637 2°56.016 12.1555 1.053206 6.830732 -2.458615
2012-03-06 07:15:04 51°13.637 2°56.015 12.1566 1.053206 6.830732 -2.458615
2012-03-06 07:15:09 51°13.637 2°56.015 12.1623 1.053206 6.830732 -2.458615
2012-03-06 07:15:14 51°13.637 2°56.015 12.1549 1.053206 6.830732 -2.458615
2012-03-06 07:15:20 51°13.637 2°56.015 12.1471 1.053206 6.830732 -2.458615
2012-03-06 07:15:24 51°13.636 2°56.015 12.1684 1.053206 6.830732 -2.458615
2012-03-06 07:15:29 51°13.636 2°56.015 12.1565 1.053206 6.830732 -2.458615
2012-03-06 07:15:35 51°13.636 2°56.014 12.1582 1.053206 6.830604 -2.458615
2012-03-06 07:15:40 51°13.637 2°56.015 12.1612 1.053206 6.830732 -2.458615
2012-03-06 07:15:45 51°13.636 2°56.015 12.1689 1.053206 6.830604 -2.458615
2012-03-06 07:15:49 51°13.636 2°56.015 12.1693 1.053206 6.830604 -2.458615
2012-03-06 07:15:54 51°13.636 2°56.015 12.1654 1.053206 6.830604 -2.458615
2012-03-06 07:16:00 51°13.637 2°56.015 12.1569 1.053206 6.830604 -2.458615
2012-03-06 07:16:05 51°13.637 2°56.015 12.1499 1.053206 6.830604 -2.458615
2012-03-06 07:16:09 51°13.637 2°56.015 12.1561 1.053206 6.830604 -2.458615
2012-03-06 07:16:14 51°13.637 2°56.016 12.1679 1.053206 6.830604 -2.458615
2012-03-06 07:16:20 51°13.638 2°56.016 12.1674 1.053206 6.830604 -2.458615
2012-03-06 07:16:25 51°13.638 2°56.016 12.1629 1.053206 6.830604 -2.458615
2012-03-06 07:16:29 51°13.637 2°56.016 12.1605 1.053206 6.830732 -2.458615
2012-03-06 07:16:34 51°13.637 2°56.016 12.1524 1.053206 6.830604 -2.458615
2012-03-06 07:16:39 51°13.637 2°56.016 12.1568 1.053206 6.830604 -2.458615
2012-03-06 07:16:45 51°13.637 2°56.015 12.168 1.053206 6.830604 -2.458615
2012-03-06 07:16:49 51°13.637 2°56.015 12.1727 1.053206 6.830604 -2.458615
2012-03-06 07:16:54 51°13.637 2°56.016 12.1579 1.053206 6.830604 -2.458615
2012-03-06 07:16:59 51°13.637 2°56.015 12.1417 1.053206 6.830604 -2.458615
2012-03-06 07:17:04 51°13.637 2°56.015 12.1378 1.053206 6.830604 -2.458615
2012-03-06 07:17:09 51°13.637 2°56.015 12.1445 1.053206 6.830604 -2.458615
2012-03-06 07:17:14 51°13.637 2°56.015 12.1511 1.053206 6.830604 -2.458615
2012-03-06 07:17:20 51°13.636 2°56.015 12.1709 1.053206 6.830604 -2.458615
2012-03-06 07:17:24 51°13.637 2°56.016 12.1773 1.053206 6.830604 -2.458615
2012-03-06 07:17:29 51°13.636 2°56.015 12.1712 1.053206 6.830604 -2.458615
2012-03-06 07:17:34 51°13.637 2°56.015 12.1709 1.053206 6.830604 -2.458615
2012-03-06 07:17:40 51°13.636 2°56.015 12.17 1.053206 6.830604 -2.458615
2012-03-06 07:17:44 51°13.637 2°56.015 12.1855 1.053206 6.830604 -2.458615
2012-03-06 07:17:49 51°13.636 2°56.015 12.1685 1.053206 6.830604 -2.458615
2012-03-06 07:17:54 51°13.636 2°56.015 12.1576 1.053206 6.830604 -2.458615
2012-03-06 07:18:00 51°13.636 2°56.015 12.1575 1.053206 6.830604 -2.458615
2012-03-06 07:18:05 51°13.637 2°56.015 12.1606 1.053206 6.830476 -2.458615
2012-03-06 07:18:09 51°13.637 2°56.015 12.1552 1.053206 6.830476 -2.458615
2012-03-06 07:18:15 51°13.636 2°56.015 12.1644 1.053206 6.830732 -2.458615
2012-03-06 07:18:20 51°13.636 2°56.015 12.1694 1.053206 6.831628 -2.458615
2012-03-06 07:18:25 51°13.636 2°56.015 12.1679 1.053206 6.831628 -2.458615
2012-03-06 07:18:29 51°13.636 2°56.015 12.1662 1.053206 6.832269 -2.458615
2012-03-06 07:18:34 51°13.637 2°56.015 12.1557 1.053206 6.831885 -2.458615
2012-03-06 07:18:39 51°13.637 2°56.015 12.1561 1.053206 6.830092 -2.458615
2012-03-06 07:18:45 51°13.637 2°56.016 12.1604 1.053309 6.830043 -2.458615
2012-03-06 07:18:49 51°13.637 2°56.016 12.1463 1.053309 6.8303 -2.458615
2012-03-06 07:18:54 51°13.637 2°56.016 12.1437 1.053309 6.8303 -2.458615
2012-03-06 07:18:59 51°13.637 2°56.016 12.1543 1.053309 6.830684 -2.458615
2012-03-06 07:19:04 51°13.637 2°56.016 12.1543 1.053309 6.83094 -2.458615
2012-03-06 07:19:09 51°13.637 2°56.016 12.1549 1.053309 6.831068 -2.458615
2012-03-06 07:19:14 51°13.637 2°56.016 12.1424 1.053309 6.831068 -2.458615
2012-03-06 07:19:19 51°13.637 2°56.016 12.1451 1.053309 6.831196 -2.458615
2012-03-06 07:19:24 51°13.638 2°56.016 12.1243 1.053309 6.831196 -2.458615
2012-03-06 07:19:29 51°13.637 2°56.016 12.1339 1.053309 6.831196 -2.458615
2012-03-06 07:19:34 51°13.638 2°56.016 12.1464 1.053309 6.831068 -2.458615
2012-03-06 07:19:40 51°13.638 2°56.016 12.1658 1.053309 6.831068 -2.458615
2012-03-06 07:19:44 51°13.638 2°56.016 12.1604 1.053309 6.831068 -2.458615
2012-03-06 07:19:49 51°13.638 2°56.016 12.1445 1.053309 6.831068 -2.458615
2012-03-06 07:19:54 51°13.639 2°56.016 12.1433 1.053309 6.831068 -2.458615
2012-03-06 07:19:59 51°13.639 2°56.015 12.1447 1.053309 6.831068 -2.458615
2012-03-06 07:20:05 51°13.638 2°56.016 12.1443 1.053309 6.831068 -2.458615
2012-03-06 07:20:09 51°13.638 2°56.016 12.1492 1.053309 6.83094 -2.458615
2012-03-06 07:20:14 51°13.638 2°56.016 12.1527 1.053309 6.83094 -2.458615
2012-03-06 07:20:20 51°13.638 2°56.016 12.1548 1.053309 6.83094 -2.458615
2012-03-06 07:20:25 51°13.638 2°56.016 12.1549 1.053309 6.83094 -2.458615
2012-03-06 07:20:29 51°13.638 2°56.016 12.1504 1.053206 6.830092 -2.458615
2012-03-06 07:20:34 51°13.638 2°56.016 12.1454 1.053309 6.830812 -2.458615
2012-03-06 07:20:40 51°13.638 2°56.016 12.1508 1.053206 6.830092 -2.458615
2012-03-06 07:20:45 51°13.638 2°56.016 12.1505 1.053206 6.830092 -2.458615
2012-03-06 07:20:49 51°13.638 2°56.016 12.1498 1.053206 6.830092 -2.458615
2012-03-06 07:20:54 51°13.638 2°56.016 12.152 1.053206 6.830092 -2.458615
2012-03-06 07:20:59 51°13.638 2°56.017 12.1481 1.053206 6.829964 -2.458615
2012-03-06 07:21:05 51°13.638 2°56.016 12.1505 1.053206 6.829964 -2.458615
2012-03-06 07:21:09 51°13.638 2°56.016 12.151 1.053206 6.829964 -2.458615
2012-03-06 07:21:14 51°13.638 2°56.016 12.1494 1.053206 6.829836 -2.458615
2012-03-06 07:21:19 51°13.638 2°56.016 12.1512 1.053206 6.829836 -2.458615
2012-03-06 07:21:25 51°13.638 2°56.017 12.1469 1.053206 6.829836 -2.458615
2012-03-06 07:21:29 51°13.638 2°56.016 12.1525 1.053206 6.829836 -2.458615
2012-03-06 07:21:34 51°13.638 2°56.017 12.1547 1.053206 6.829836 -2.458615
2012-03-06 07:21:40 51°13.638 2°56.016 12.1499 1.053206 6.829836 -2.458615
2012-03-06 07:21:44 51°13.638 2°56.017 12.1361 1.053206 6.829836 -2.458615
2012-03-06 07:21:49 51°13.638 2°56.016 12.1453 1.053206 6.829836 -2.458615
2012-03-06 07:21:54 51°13.638 2°56.016 12.1462 1.053206 6.829836 -2.458615
2012-03-06 07:21:59 51°13.638 2°56.017 12.1444 1.053206 6.829708 -2.458615
2012-03-06 07:22:04 51°13.638 2°56.017 12.1534 1.053206 6.829708 -2.458615
2012-03-06 07:22:09 51°13.637 2°56.016 12.1532 1.053206 6.829708 -2.458615
2012-03-06 07:22:14 51°13.638 2°56.016 12.1505 1.053206 6.829708 -2.458615
2012-03-06 07:22:20 51°13.637 2°56.016 12.157 1.053206 6.829708 -2.458615
2012-03-06 07:22:25 51°13.637 2°56.016 12.1504 1.053206 6.829708 -2.458615
2012-03-06 07:22:29 51°13.637 2°56.016 12.1511 1.053206 6.829708 -2.458615
2012-03-06 07:22:35 51°13.638 2°56.017 12.1484 1.053206 6.829708 -2.458615
2012-03-06 07:22:40 51°13.637 2°56.016 12.1518 1.053206 6.82958 -2.458615
2012-03-06 07:22:44 51°13.637 2°56.016 12.1523 1.053206 6.82958 -2.458615
2012-03-06 07:22:49 51°13.637 2°56.016 12.1551 1.053206 6.829708 -2.458615
2012-03-06 07:22:54 51°13.637 2°56.016 12.1532 1.053206 6.829708 -2.458615
2012-03-06 07:23:00 51°13.637 2°56.017 12.1548 1.053206 6.82958 -2.458615
2012-03-06 07:23:05 51°13.637 2°56.017 12.1508 1.053206 6.82958 -2.458615
2012-03-06 07:23:09 51°13.637 2°56.017 12.146 1.053206 6.82958 -2.458615
2012-03-06 07:23:14 51°13.637 2°56.017 12.1467 1.053206 6.82958 -2.458615
2012-03-06 07:23:19 51°13.637 2°56.017 12.1441 1.053206 6.82958 -2.458615
2012-03-06 07:23:25 51°13.637 2°56.017 12.1481 1.053206 6.82958 -2.458615
2012-03-06 07:23:29 51°13.637 2°56.017 12.153 1.053206 6.82958 -2.458615
2012-03-06 07:23:34 51°13.637 2°56.017 12.1559 1.053206 6.82958 -2.458615
2012-03-06 07:23:39 51°13.637 2°56.017 12.1591 1.053206 6.82958 -2.458615
2012-03-06 07:23:44 51°13.637 2°56.017 12.1646 1.053206 6.82958 -2.458615
2012-03-06 07:23:49 51°13.637 2°56.017 12.1405 1.053206 6.829452 -2.458615
2012-03-06 07:23:54 51°13.637 2°56.017 12.1354 1.053206 6.829452 -2.458615
2012-03-06 07:23:59 51°13.637 2°56.017 12.1391 1.053206 6.829452 -2.458615
2012-03-06 07:24:04 51°13.637 2°56.017 12.1327 1.053206 6.829452 -2.458615
2012-03-06 07:24:09 51°13.637 2°56.017 12.1364 1.053206 6.829452 -2.458615
2012-03-06 07:24:14 51°13.637 2°56.017 12.1432 1.053206 6.829452 -2.458615
2012-03-06 07:24:19 51°13.637 2°56.017 12.1495 1.053206 6.829452 -2.458615
2012-03-06 07:24:24 51°13.637 2°56.017 12.1586 1.053206 6.829452 -2.458615
2012-03-06 07:24:29 51°13.637 2°56.017 12.1568 1.053206 6.829452 -2.458615
2012-03-06 07:24:34 51°13.637 2°56.017 12.1636 1.053206 6.829452 -2.458615
2012-03-06 07:24:40 51°13.637 2°56.017 12.1601 1.053206 6.829324 -2.458615
2012-03-06 07:24:44 51°13.637 2°56.017 12.1565 1.053206 6.829452 -2.458615
2012-03-06 07:24:49 51°13.637 2°56.017 12.151 1.053206 6.829324 -2.458615
2012-03-06 07:24:54 51°13.636 2°56.016 12.153 1.053206 6.829324 -2.458615
2012-03-06 07:25:00 51°13.636 2°56.016 12.1541 1.053206 6.829324 -2.458615
2012-03-06 07:25:05 51°13.637 2°56.016 12.1608 1.053206 6.829324 -2.458615
2012-03-06 07:25:09 51°13.637 2°56.017 12.1633 1.053206 6.829324 -2.458615
2012-03-06 07:25:14 51°13.637 2°56.016 12.1565 1.053206 6.829324 -2.458615
2012-03-06 07:25:20 51°13.637 2°56.016 12.1553 1.053206 6.829324 -2.458615
2012-03-06 07:25:25 51°13.637 2°56.016 12.1551 1.053206 6.829324 -2.458615
2012-03-06 07:25:29 51°13.637 2°56.016 12.1543 1.053206 6.829324 -2.458615
2012-03-06 07:25:34 51°13.638 2°56.017 12.1537 1.053206 6.829324 -2.458615
2012-03-06 07:25:39 51°13.637 2°56.017 12.1522 1.053206 6.829324 -2.458615
2012-03-06 07:25:45 51°13.637 2°56.016 12.1513 1.053206 6.829196 -2.458615
2012-03-06 07:25:49 51°13.637 2°56.016 12.153 1.053206 6.829196 -2.458615
2012-03-06 07:25:54 51°13.637 2°56.016 12.1545 1.053206 6.829196 -2.458615
2012-03-06 07:25:59 51°13.637 2°56.016 12.1565 1.053206 6.829196 -2.458615
2012-03-06 07:26:05 51°13.637 2°56.016 12.1576 1.053206 6.829196 -2.458615
2012-03-06 07:26:09 51°13.637 2°56.016 12.1601 1.053206 6.829196 -2.458615
2012-03-06 07:26:14 51°13.637 2°56.016 12.1586 1.053206 6.829196 -2.458615
2012-03-06 07:26:19 51°13.637 2°56.016 12.1573 1.053206 6.829196 -2.458615
2012-03-06 07:26:24 51°13.637 2°56.016 12.1597 1.053206 6.829196 -2.458615
2012-03-06 07:26:29 51°13.637 2°56.016 12.1546 1.053206 6.829196 -2.458615
2012-03-06 07:26:34 51°13.637 2°56.016 12.154 1.053206 6.829324 -2.458615
2012-03-06 07:26:40 51°13.637 2°56.016 12.1589 1.053206 6.829196 -2.458615
2012-03-06 07:26:44 51°13.637 2°56.016 12.1522 1.053206 6.829196 -2.458615
2012-03-06 07:26:49 51°13.637 2°56.016 12.1544 1.053206 6.829196 -2.458615
2012-03-06 07:26:54 51°13.637 2°56.016 12.157 1.053206 6.829196 -2.458615
2012-03-06 07:27:00 51°13.637 2°56.016 12.1581 1.053206 6.829196 -2.458615
2012-03-06 07:27:04 51°13.637 2°56.016 12.1581 1.053206 6.829196 -2.458615
2012-03-06 07:27:09 51°13.637 2°56.016 12.1552 1.053206 6.829196 -2.458615
2012-03-06 07:27:14 51°13.637 2°56.016 12.1589 1.053206 6.829196 -2.458615
2012-03-06 07:27:20 51°13.637 2°56.016 12.1577 1.053206 6.829068 -2.458615
2012-03-06 07:27:25 51°13.637 2°56.016 12.157 1.053206 6.829068 -2.458615
2012-03-06 07:27:29 51°13.637 2°56.016 12.154 1.053206 6.829068 -2.458615
2012-03-06 07:27:34 51°13.637 2°56.016 12.1299 1.053206 6.829196 -2.458615
2012-03-06 07:27:40 51°13.637 2°56.016 12.1349 1.053206 6.829068 -2.458615
2012-03-06 07:27:45 51°13.637 2°56.016 12.1494 1.053206 6.829068 -2.458615
2012-03-06 07:27:49 51°13.637 2°56.016 12.1503 1.053206 6.829068 -2.458615
2012-03-06 07:27:54 51°13.637 2°56.016 12.1453 1.053206 6.829068 -2.458615
2012-03-06 07:27:59 51°13.637 2°56.016 12.1468 1.053206 6.829068 -2.458615
2012-03-06 07:28:05 51°13.637 2°56.016 12.1471 1.053206 6.829068 -2.458615
2012-03-06 07:28:09 51°13.637 2°56.016 12.1513 1.053206 6.829068 -2.458615
2012-03-06 07:28:14 51°13.637 2°56.016 12.1384 1.053206 6.829068 -2.458615
2012-03-06 07:28:19 51°13.636 2°56.016 12.1377 1.053206 6.829068 -2.458615
2012-03-06 07:28:24 51°13.636 2°56.016 12.1403 1.053206 6.829068 -2.458615
2012-03-06 07:28:29 51°13.637 2°56.016 12.136 1.053206 6.829068 -2.458615
2012-03-06 07:28:34 51°13.637 2°56.016 12.1383 1.053206 6.829068 -2.458615
2012-03-06 07:28:39 51°13.636 2°56.016 12.1394 1.053206 6.829068 -2.458615
2012-03-06 07:28:44 51°13.636 2°56.015 12.1465 1.053206 6.829068 -2.458615
2012-03-06 07:28:49 51°13.636 2°56.016 12.1375 1.053206 6.829068 -2.458615
2012-03-06 07:28:54 51°13.636 2°56.015 12.1343 1.053206 6.829068 -2.458615
2012-03-06 07:29:00 51°13.636 2°56.016 12.1422 1.053206 6.829068 -2.458615
2012-03-06 07:29:04 51°13.636 2°56.016 12.1412 1.053206 6.829068 -2.458615
2012-03-06 07:29:09 51°13.636 2°56.016 12.1478 1.053206 6.829068 -2.458615
2012-03-06 07:29:14 51°13.636 2°56.016 12.146 1.053206 6.829068 -2.458615
2012-03-06 07:29:20 51°13.636 2°56.016 12.1534 1.053206 6.829068 -2.458615
2012-03-06 07:29:25 51°13.636 2°56.016 12.1552 1.053206 6.829068 -2.458615
2012-03-06 07:29:29 51°13.636 2°56.016 12.148 1.053206 6.829068 -2.458615
2012-03-06 07:29:34 51°13.636 2°56.016 12.1474 1.053206 6.829068 -2.458615
2012-03-06 07:29:40 51°13.636 2°56.016 12.1448 1.053206 6.829068 -2.458615
2012-03-06 07:29:45 51°13.636 2°56.016 12.1434 1.053206 6.829068 -2.458615
2012-03-06 07:29:49 51°13.636 2°56.016 12.1439 1.053206 6.829068 -2.458615
2012-03-06 07:29:54 51°13.636 2°56.016 12.1444 1.053206 6.829068 -2.458615
2012-03-06 07:30:00 51°13.636 2°56.016 12.1416 1.053206 6.829068 -2.458615
2012-03-06 07:30:05 51°13.636 2°56.016 12.1442 1.053206 6.829068 -2.458615
2012-03-06 07:30:09 51°13.636 2°56.016 12.1469 1.053206 6.829068 -2.458615
2012-03-06 07:30:14 51°13.637 2°56.016 12.1465 1.053206 6.829068 -2.458615
2012-03-06 07:30:19 51°13.637 2°56.016 12.1535 1.053206 6.829068 -2.458615
2012-03-06 07:30:24 51°13.636 2°56.016 12.1499 1.053206 6.829068 -2.458615
2012-03-06 07:30:29 51°13.637 2°56.016 12.1472 1.053206 6.829068 -2.458615
2012-03-06 07:30:34 51°13.636 2°56.016 12.1403 1.053206 6.829068 -2.458615
2012-03-06 07:30:39 51°13.636 2°56.016 12.1362 1.053206 6.829068 -2.458615
2012-03-06 07:30:44 51°13.636 2°56.016 12.1392 1.053206 6.829068 -2.458615
2012-03-06 07:30:49 51°13.636 2°56.016 12.1454 1.053206 6.829068 -2.458615
2012-03-06 07:30:54 51°13.637 2°56.016 12.1465 1.053206 6.829068 -2.458615
2012-03-06 07:31:00 51°13.637 2°56.016 12.1423 1.053206 6.829068 -2.458615
2012-03-06 07:31:04 51°13.637 2°56.016 12.1523 1.053206 6.829068 -2.458615
2012-03-06 07:31:09 51°13.638 2°56.016 12.1454 1.053206 6.829068 -2.458615
2012-03-06 07:31:14 51°13.636 2°56.016 12.1408 1.053206 6.829068 -2.458615
2012-03-06 07:31:20 51°13.637 2°56.016 12.1426 1.053206 6.829068 -2.458615
2012-03-06 07:31:24 51°13.637 2°56.016 12.1418 1.053206 6.829068 -2.458615
2012-03-06 07:31:29 51°13.637 2°56.016 12.145 1.053206 6.829068 -2.458615
2012-03-06 07:31:34 51°13.637 2°56.016 12.146 1.053206 6.829068 -2.458615
2012-03-06 07:31:40 51°13.637 2°56.016 12.1476 1.053206 6.829068 -2.458615
2012-03-06 07:31:45 51°13.637 2°56.016 12.1465 1.053206 6.829196 -2.458615
2012-03-06 07:31:49 51°13.637 2°56.016 12.1476 1.053206 6.829068 -2.458615
2012-03-06 07:31:54 51°13.636 2°56.016 12.1449 1.053206 6.829068 -2.458615
2012-03-06 07:31:59 51°13.637 2°56.016 12.1422 1.053206 6.829068 -2.458615
2012-03-06 07:32:05 51°13.637 2°56.016 12.1493 1.053206 6.829068 -2.458615
2012-03-06 07:32:09 51°13.637 2°56.016 12.1499 1.053206 6.829068 -2.458615
2012-03-06 07:32:14 51°13.637 2°56.016 12.1355 1.053206 6.829068 -2.458615
2012-03-06 07:32:19 51°13.637 2°56.016 12.1313 1.053206 6.829068 -2.458615
2012-03-06 07:32:25 51°13.637 2°56.016 12.1425 1.053206 6.829068 -2.458615
2012-03-06 07:32:29 51°13.637 2°56.015 12.1367 1.053206 6.829196 -2.458615
2012-03-06 07:32:34 51°13.637 2°56.016 12.1432 1.053206 6.829068 -2.458615
2012-03-06 07:32:39 51°13.637 2°56.015 12.146 1.053206 6.829068 -2.458615
2012-03-06 07:32:45 51°13.637 2°56.016 12.1466 1.053206 6.829068 -2.458615
2012-03-06 07:32:49 51°13.637 2°56.016 12.1485 1.053206 6.829068 -2.458615
2012-03-06 07:32:54 51°13.638 2°56.016 12.1425 1.053206 6.829068 -2.458615
2012-03-06 07:32:59 51°13.638 2°56.016 12.1472 1.053206 6.829068 -2.458615
2012-03-06 07:33:04 51°13.638 2°56.016 12.1476 1.053206 6.829068 -2.458615
2012-03-06 07:33:09 51°13.638 2°56.016 12.1421 1.053206 6.829196 -2.458615
2012-03-06 07:33:14 51°13.638 2°56.016 12.1346 1.053206 6.829068 -2.458615
2012-03-06 07:33:20 51°13.638 2°56.016 12.1425 1.053206 6.829196 -2.458615
2012-03-06 07:33:24 51°13.638 2°56.016 12.1402 1.053206 6.829196 -2.458615
2012-03-06 07:33:29 51°13.638 2°56.016 12.1411 1.053206 6.829196 -2.458615
2012-03-06 07:33:34 51°13.638 2°56.016 12.1461 1.053206 6.829196 -2.458615
2012-03-06 07:33:40 51°13.638 2°56.016 12.148 1.053206 6.829196 -2.458615
2012-03-06 07:33:45 51°13.638 2°56.016 12.1448 1.053206 6.829196 -2.458615
2012-03-06 07:33:49 51°13.638 2°56.016 12.1456 1.053206 6.829196 -2.458615
2012-03-06 07:33:54 51°13.638 2°56.016 12.1462 1.053206 6.829196 -2.458615
2012-03-06 07:34:00 51°13.638 2°56.017 12.1476 1.053206 6.829196 -2.458615
2012-03-06 07:34:05 51°13.638 2°56.017 12.1478 1.053206 6.829196 -2.458615
2012-03-06 07:34:09 51°13.638 2°56.016 12.1493 1.053206 6.829196 -2.458615
2012-03-06 07:34:14 51°13.638 2°56.016 12.1503 1.053206 6.829196 -2.458615
2012-03-06 07:34:19 51°13.638 2°56.017 12.1494 1.053206 6.829324 -2.458615
2012-03-06 07:34:25 51°13.639 2°56.017 12.1493 1.053206 6.829324 -2.458615
2012-03-06 07:34:29 51°13.639 2°56.017 12.1497 1.053206 6.829196 -2.458615
2012-03-06 07:34:34 51°13.638 2°56.017 12.1469 1.053206 6.829196 -2.458615
2012-03-06 07:34:39 51°13.638 2°56.017 12.1449 1.053206 6.829196 -2.458615
2012-03-06 07:34:45 51°13.638 2°56.016 12.15 1.053206 6.829324 -2.458615
2012-03-06 07:34:49 51°13.638 2°56.016 12.151 1.053206 6.829324 -2.458615
2012-03-06 07:34:54 51°13.638 2°56.016 12.1499 1.053206 6.829324 -2.458615
2012-03-06 07:34:59 51°13.638 2°56.016 12.1498 1.053206 6.829196 -2.458615
2012-03-06 07:35:05 51°13.638 2°56.016 12.1501 1.053206 6.829196 -2.458615
2012-03-06 07:35:09 51°13.639 2°56.016 12.1474 1.053206 6.829196 -2.458615
2012-03-06 07:35:14 51°13.638 2°56.016 12.1446 1.053206 6.829196 -2.458615
2012-03-06 07:35:20 51°13.638 2°56.016 12.1464 1.053206 6.829196 -2.458615
2012-03-06 07:35:24 51°13.638 2°56.016 12.1484 1.053206 6.829196 -2.458615
2012-03-06 07:35:29 51°13.638 2°56.016 12.1436 1.053206 6.829324 -2.458615
2012-03-06 07:35:34 51°13.638 2°56.016 12.1403 1.053103 6.828604 -2.458615
2012-03-06 07:35:39 51°13.638 2°56.016 12.1407 1.053103 6.828604 -2.458615
2012-03-06 07:35:44 51°13.638 2°56.016 12.1419 1.053103 6.828604 -2.458615
2012-03-06 07:35:49 51°13.638 2°56.016 12.1501 1.053103 6.828604 -2.458615
2012-03-06 07:35:54 51°13.638 2°56.016 12.1478 1.053103 6.828604 -2.458615
2012-03-06 07:36:00 51°13.638 2°56.016 12.1451 1.053103 6.828604 -2.458615
2012-03-06 07:36:05 51°13.638 2°56.016 12.14 1.053103 6.828604 -2.458615
2012-03-06 07:36:09 51°13.638 2°56.016 12.1441 1.053103 6.828604 -2.458615
2012-03-06 07:36:14 51°13.638 2°56.016 12.1443 1.053103 6.828604 -2.458615
2012-03-06 07:36:20 51°13.637 2°56.015 12.1475 1.053103 6.828604 -2.458615
2012-03-06 07:36:24 51°13.638 2°56.016 12.1496 1.053103 6.828604 -2.458615
2012-03-06 07:36:29 51°13.637 2°56.015 12.1504 1.053103 6.828732 -2.458615
2012-03-06 07:36:34 51°13.638 2°56.016 12.1491 1.053103 6.828732 -2.458615
2012-03-06 07:36:39 51°13.637 2°56.015 12.1484 1.053103 6.828732 -2.458615
2012-03-06 07:36:45 51°13.637 2°56.016 12.1517 1.053103 6.828732 -2.458615
2012-03-06 07:36:49 51°13.637 2°56.016 12.1486 1.053103 6.828604 -2.458615
2012-03-06 07:36:54 51°13.637 2°56.016 12.1351 1.053103 6.828604 -2.458615
2012-03-06 07:36:59 51°13.637 2°56.016 12.1398 1.053103 6.828732 -2.458615
2012-03-06 07:37:04 51°13.638 2°56.016 12.1572 1.053103 6.828732 -2.458615
2012-03-06 07:37:09 51°13.638 2°56.016 12.1478 1.053103 6.828732 -2.458615
2012-03-06 07:37:14 51°13.637 2°56.016 12.143 1.053103 6.828732 -2.458615
2012-03-06 07:37:19 51°13.637 2°56.016 12.1477 1.053103 6.828732 -2.458615
2012-03-06 07:37:24 51°13.637 2°56.016 12.1487 1.053103 6.828732 -2.458615
2012-03-06 07:37:29 51°13.637 2°56.016 12.1522 1.053103 6.828732 -2.458615
2012-03-06 07:37:34 51°13.637 2°56.016 12.1556 1.053103 6.82886 -2.458615
2012-03-06 07:37:39 51°13.636 2°56.016 12.1489 1.053103 6.828732 -2.458615
2012-03-06 07:37:44 51°13.636 2°56.015 12.1525 1.053103 6.82886 -2.458615
2012-03-06 07:37:49 51°13.636 2°56.015 12.1633 1.053103 6.82886 -2.458615
2012-03-06 07:37:54 51°13.636 2°56.015 12.1611 1.053103 6.82886 -2.458615
2012-03-06 07:37:59 51°13.636 2°56.015 12.1591 1.053103 6.82886 -2.458615
2012-03-06 07:38:05 51°13.636 2°56.016 12.1571 1.053103 6.82886 -2.458615
2012-03-06 07:38:09 51°13.637 2°56.016 12.1565 1.053103 6.82886 -2.458615
2012-03-06 07:38:14 51°13.637 2°56.016 12.1544 1.053103 6.82886 -2.458615
2012-03-06 07:38:20 51°13.637 2°56.016 12.1557 1.053103 6.82886 -2.458615
2012-03-06 07:38:24 51°13.637 2°56.016 12.1605 1.053103 6.82886 -2.458615
2012-03-06 07:38:29 51°13.637 2°56.016 12.1592 1.053103 6.82886 -2.458615
2012-03-06 07:38:34 51°13.636 2°56.016 12.1571 1.053103 6.828988 -2.458615
2012-03-06 07:38:40 51°13.636 2°56.016 12.1553 1.053103 6.828988 -2.458615
2012-03-06 07:38:45 51°13.637 2°56.016 12.156 1.053103 6.828988 -2.458615
2012-03-06 07:38:49 51°13.637 2°56.016 12.1557 1.053103 6.828988 -2.458615
2012-03-06 07:38:54 51°13.637 2°56.016 12.1546 1.053103 6.828988 -2.458615
2012-03-06 07:38:59 51°13.637 2°56.016 12.1562 1.053 6.828268 -2.458615
2012-03-06 07:39:05 51°13.637 2°56.016 12.1525 1.053 6.828268 -2.458615
2012-03-06 07:39:09 51°13.637 2°56.016 12.1461 1.053 6.828268 -2.458615
2012-03-06 07:39:14 51°13.637 2°56.016 12.143 1.053 6.828268 -2.458615
2012-03-06 07:39:19 51°13.637 2°56.016 12.144 1.053 6.828268 -2.458615
2012-03-06 07:39:25 51°13.637 2°56.016 12.1488 1.053 6.828268 -2.458615
2012-03-06 07:39:29 51°13.637 2°56.016 12.1506 1.053 6.828268 -2.458615
2012-03-06 07:39:34 51°13.637 2°56.016 12.1557 1.053 6.828396 -2.458615
2012-03-06 07:39:39 51°13.637 2°56.016 12.1624 1.053 6.828396 -2.458615
2012-03-06 07:39:44 51°13.637 2°56.016 12.1652 1.053 6.828396 -2.458615
2012-03-06 07:39:49 51°13.637 2°56.016 12.1616 1.053 6.828396 -2.458615
2012-03-06 07:39:54 51°13.637 2°56.017 12.1594 1.053 6.828396 -2.458615
2012-03-06 07:39:59 51°13.637 2°56.016 12.1605 1.053 6.828396 -2.458615
2012-03-06 07:40:04 51°13.636 2°56.016 12.1651 1.053 6.828396 -2.458615
2012-03-06 07:40:09 51°13.637 2°56.016 12.1652 1.053 6.828396 -2.458615
2012-03-06 07:40:14 51°13.637 2°56.016 12.1633 1.053 6.828524 -2.458615
2012-03-06 07:40:20 51°13.637 2°56.016 12.1662 1.053 6.828396 -2.458615
2012-03-06 07:40:24 51°13.637 2°56.016 12.1627 1.053 6.828396 -2.458615
2012-03-06 07:40:29 51°13.637 2°56.016 12.1639 1.053 6.828524 -2.458615
2012-03-06 07:40:34 51°13.637 2°56.016 12.1648 1.053 6.828524 -2.458615
2012-03-06 07:40:40 51°13.637 2°56.017 12.1629 1.053 6.828524 -2.458615
2012-03-06 07:40:44 51°13.637 2°56.017 12.1654 1.053 6.828652 -2.458615
2012-03-06 07:40:49 51°13.637 2°56.016 12.1672 1.053 6.828524 -2.458615
2012-03-06 07:40:54 51°13.637 2°56.016 12.1654 1.053 6.828524 -2.458615
2012-03-06 07:40:59 51°13.637 2°56.016 12.1627 1.053 6.828524 -2.458615
2012-03-06 07:41:05 51°13.637 2°56.016 12.1644 1.053 6.828652 -2.458615
2012-03-06 07:41:09 51°13.637 2°56.016 12.1656 1.053 6.828652 -2.458615
2012-03-06 07:41:14 51°13.637 2°56.016 12.1648 1.052897 6.827932 -2.458615
2012-03-06 07:41:19 51°13.637 2°56.016 12.1633 1.052897 6.827932 -2.458615
2012-03-06 07:41:25 51°13.637 2°56.016 12.1634 1.052897 6.827932 -2.458615
2012-03-06 07:41:29 51°13.637 2°56.016 12.1589 1.052897 6.827932 -2.458615
2012-03-06 07:41:34 51°13.637 2°56.016 12.1599 1.052897 6.827932 -2.458615
2012-03-06 07:41:39 51°13.638 2°56.016 12.159 1.052897 6.827932 -2.458615
2012-03-06 07:41:44 51°13.637 2°56.016 12.1582 1.052897 6.827932 -2.458615
2012-03-06 07:41:49 51°13.637 2°56.016 12.164 1.052897 6.82806 -2.458615
2012-03-06 07:41:54 51°13.637 2°56.016 12.1678 1.052897 6.82806 -2.458615
2012-03-06 07:41:59 51°13.637 2°56.016 12.1666 1.052897 6.82806 -2.458615
2012-03-06 07:42:04 51°13.637 2°56.016 12.1646 1.052897 6.82806 -2.458615
2012-03-06 07:42:09 51°13.637 2°56.016 12.164 1.052897 6.82806 -2.458615
2012-03-06 07:42:14 51°13.637 2°56.016 12.1634 1.052897 6.82806 -2.458615
2012-03-06 07:42:19 51°13.637 2°56.016 12.1601 1.052897 6.82806 -2.458615
2012-03-06 07:42:24 51°13.637 2°56.016 12.1689 1.052897 6.82806 -2.458615
2012-03-06 07:42:29 51°13.637 2°56.016 12.1704 1.052897 6.82806 -2.458615
2012-03-06 07:42:34 51°13.636 2°56.016 12.1709 1.052897 6.828188 -2.458615
2012-03-06 07:42:40 51°13.636 2°56.016 12.1727 1.052897 6.828188 -2.458615
2012-03-06 07:42:44 51°13.636 2°56.016 12.1723 1.052897 6.828188 -2.458615
2012-03-06 07:42:49 51°13.636 2°56.016 12.1716 1.052897 6.828188 -2.458615
2012-03-06 07:42:54 51°13.636 2°56.016 12.169 1.052897 6.828188 -2.458615
2012-03-06 07:43:00 51°13.636 2°56.016 12.1664 1.052897 6.828188 -2.458615
2012-03-06 07:43:05 51°13.637 2°56.016 12.1701 1.052897 6.828316 -2.458615
2012-03-06 07:43:09 51°13.636 2°56.016 12.1742 1.052897 6.828316 -2.458615
2012-03-06 07:43:14 51°13.636 2°56.016 12.1695 1.052897 6.828316 -2.458615
2012-03-06 07:43:20 51°13.636 2°56.016 12.1587 1.052794 6.827596 -2.458615
2012-03-06 07:43:25 51°13.637 2°56.016 12.1604 1.052794 6.827596 -2.458615
2012-03-06 07:43:29 51°13.637 2°56.016 12.1625 1.052794 6.827596 -2.458615
2012-03-06 07:43:34 51°13.637 2°56.016 12.1655 1.052794 6.827596 -2.458615
2012-03-06 07:43:39 51°13.637 2°56.016 12.1668 1.052794 6.827724 -2.458615
2012-03-06 07:43:45 51°13.637 2°56.016 12.1678 1.052794 6.827724 -2.458615
2012-03-06 07:43:49 51°13.636 2°56.015 12.1663 1.052794 6.827724 -2.458615
2012-03-06 07:43:54 51°13.636 2°56.015 12.1678 1.052794 6.827724 -2.458615
2012-03-06 07:43:59 51°13.636 2°56.015 12.1688 1.052794 6.827724 -2.458615
2012-03-06 07:44:04 51°13.636 2°56.015 12.169 1.052794 6.827724 -2.458615
2012-03-06 07:44:09 51°13.636 2°56.015 12.1679 1.052794 6.827724 -2.458615
2012-03-06 07:44:14 51°13.636 2°56.015 12.1628 1.052794 6.827724 -2.458615
2012-03-06 07:44:19 51°13.637 2°56.016 12.1568 1.052794 6.827724 -2.458615
2012-03-06 07:44:24 51°13.637 2°56.016 12.1604 1.052794 6.827724 -2.458615
2012-03-06 07:44:29 51°13.637 2°56.016 12.1629 1.052794 6.827852 -2.458615
2012-03-06 07:44:34 51°13.636 2°56.015 12.1677 1.052794 6.827724 -2.458615
2012-03-06 07:44:40 51°13.636 2°56.015 12.1673 1.052794 6.827852 -2.458615
2012-03-06 07:44:44 51°13.636 2°56.015 12.1668 1.052794 6.82798 -2.458615
2012-03-06 07:44:49 51°13.637 2°56.016 12.1705 1.052794 6.82798 -2.458615
2012-03-06 07:44:54 51°13.636 2°56.015 12.1732 1.052794 6.82798 -2.458615
2012-03-06 07:45:00 51°13.636 2°56.015 12.1751 1.052794 6.82798 -2.458615
2012-03-06 07:45:04 51°13.636 2°56.015 12.1754 1.052794 6.82798 -2.458615
2012-03-06 07:45:09 51°13.637 2°56.016 12.1744 1.052691 6.82726 -2.458615
2012-03-06 07:45:14 51°13.636 2°56.015 12.1725 1.052794 6.828108 -2.458615
2012-03-06 07:45:20 51°13.636 2°56.016 12.1716 1.052691 6.827388 -2.458615
2012-03-06 07:45:25 51°13.637 2°56.016 12.1726 1.052691 6.827388 -2.458615
2012-03-06 07:45:29 51°13.637 2°56.016 12.1704 1.052691 6.827388 -2.458615
2012-03-06 07:45:34 51°13.637 2°56.016 12.1743 1.052691 6.827388 -2.458615
2012-03-06 07:45:39 51°13.636 2°56.016 12.1793 1.052691 6.827388 -2.458615
2012-03-06 07:45:45 51°13.636 2°56.016 12.1757 1.052691 6.827388 -2.458615
2012-03-06 07:45:49 51°13.636 2°56.016 12.1569 1.052691 6.827388 -2.458615
2012-03-06 07:45:54 51°13.636 2°56.016 12.1335 1.052691 6.827388 -2.458615
2012-03-06 07:45:59 51°13.636 2°56.016 12.1674 1.052691 6.827388 -2.458615
2012-03-06 07:46:05 51°13.637 2°56.016 12.1797 1.052691 6.827516 -2.458615
2012-03-06 07:46:09 51°13.637 2°56.015 12.1832 1.052691 6.827516 -2.458615
2012-03-06 07:46:14 51°13.636 2°56.015 12.1898 1.052691 6.827516 -2.458615
2012-03-06 07:46:19 51°13.637 2°56.015 12.1911 1.052691 6.827644 -2.458615
2012-03-06 07:46:24 51°13.637 2°56.015 12.1921 1.052691 6.827644 -2.458615
2012-03-06 07:46:29 51°13.637 2°56.015 12.1813 1.052691 6.827644 -2.458615
2012-03-06 07:46:34 51°13.637 2°56.015 12.1842 1.052691 6.827772 -2.458615
2012-03-06 07:46:39 51°13.637 2°56.015 12.1853 1.052691 6.827644 -2.458615
2012-03-06 07:46:44 51°13.636 2°56.015 12.1731 1.052691 6.827644 -2.458615
2012-03-06 07:46:49 51°13.636 2°56.016 12.1711 1.052691 6.827772 -2.458615
2012-03-06 07:46:54 51°13.637 2°56.016 12.1593 1.052691 6.827772 -2.458615
2012-03-06 07:46:59 51°13.637 2°56.016 12.1629 1.052691 6.827772 -2.458615
2012-03-06 07:47:04 51°13.637 2°56.016 12.1757 1.052691 6.8279 -2.458615
2012-03-06 07:47:09 51°13.636 2°56.016 12.1695 1.052691 6.8279 -2.458615
2012-03-06 07:47:14 51°13.637 2°56.016 12.1606 1.052691 6.827772 -2.458615
2012-03-06 07:47:20 51°13.637 2°56.016 12.1741 1.052588 6.827051 -2.458615
2012-03-06 07:47:25 51°13.637 2°56.016 12.1744 1.052588 6.827051 -2.458615
2012-03-06 07:47:29 51°13.637 2°56.016 12.1741 1.052588 6.827179 -2.458615
2012-03-06 07:47:34 51°13.636 2°56.016 12.1747 1.052588 6.827051 -2.458615
2012-03-06 07:47:39 51°13.636 2°56.016 12.1751 1.052588 6.827179 -2.458615
2012-03-06 07:47:44 51°13.637 2°56.016 12.1755 1.052588 6.827179 -2.458615
2012-03-06 07:47:49 51°13.637 2°56.016 12.1754 1.052588 6.827307 -2.458615
2012-03-06 07:47:54 51°13.637 2°56.016 12.1747 1.052588 6.827307 -2.458615
2012-03-06 07:47:59 51°13.637 2°56.016 12.1684 1.052588 6.827307 -2.458615
2012-03-06 07:48:04 51°13.637 2°56.016 12.1598 1.052588 6.827307 -2.458615
2012-03-06 07:48:09 51°13.637 2°56.016 12.16 1.052588 6.827307 -2.458615
2012-03-06 07:48:14 51°13.637 2°56.016 12.1638 1.052588 6.827435 -2.458615
2012-03-06 07:48:19 51°13.637 2°56.016 12.1609 1.052485 6.826587 -2.458615
2012-03-06 07:48:24 51°13.638 2°56.017 12.1569 1.052485 6.826587 -2.458615
2012-03-06 07:48:29 51°13.637 2°56.016 12.1601 1.052485 6.826715 -2.458615
2012-03-06 07:48:34 51°13.637 2°56.016 12.1651 1.052485 6.826715 -2.458615
2012-03-06 07:48:39 51°13.637 2°56.016 12.1566 1.052485 6.826715 -2.458615
2012-03-06 07:48:44 51°13.637 2°56.016 12.1662 1.052485 6.826715 -2.458615
2012-03-06 07:48:49 51°13.638 2°56.016 12.1732 1.052485 6.826715 -2.458615
2012-03-06 07:48:54 51°13.638 2°56.016 12.1794 1.052485 6.826715 -2.458615
2012-03-06 07:48:59 51°13.637 2°56.016 12.1768 1.052485 6.826843 -2.458615
2012-03-06 07:49:04 51°13.637 2°56.016 12.1756 1.052485 6.826843 -2.458615
2012-03-06 07:49:09 51°13.637 2°56.015 12.1748 1.052485 6.826971 -2.458615
2012-03-06 07:49:14 51°13.637 2°56.015 12.1754 1.052485 6.826971 -2.458615
2012-03-06 07:49:19 51°13.637 2°56.015 12.1775 1.052382 6.826251 -2.458615
2012-03-06 07:49:24 51°13.637 2°56.015 12.1818 1.052382 6.826251 -2.458615
2012-03-06 07:49:29 51°13.637 2°56.015 12.1834 1.052485 6.826971 -2.458615
2012-03-06 07:49:34 51°13.637 2°56.015 12.1803 1.052485 6.827099 -2.458615
2012-03-06 07:49:39 51°13.637 2°56.016 12.1786 1.052382 6.826379 -2.458615
2012-03-06 07:49:44 51°13.637 2°56.016 12.1791 1.052382 6.826379 -2.458615
2012-03-06 07:49:49 51°13.637 2°56.016 12.1823 1.052382 6.826379 -2.458615
2012-03-06 07:49:54 51°13.637 2°56.016 12.1754 1.052382 6.826379 -2.458615
2012-03-06 07:49:59 51°13.638 2°56.016 12.1734 1.052382 6.826507 -2.458615
2012-03-06 07:50:04 51°13.638 2°56.016 12.177 1.052382 6.826507 -2.458615
2012-03-06 07:50:09 51°13.637 2°56.016 12.1792 1.052382 6.826507 -2.458615
2012-03-06 07:50:14 51°13.637 2°56.016 12.181 1.052382 6.826507 -2.458615
2012-03-06 07:50:19 51°13.637 2°56.016 12.1755 1.052382 6.826507 -2.458615
2012-03-06 07:50:24 51°13.637 2°56.016 12.1719 1.052382 6.826507 -2.458615
2012-03-06 07:50:29 51°13.637 2°56.016 12.1731 1.052382 6.826635 -2.458615
2012-03-06 07:50:34 51°13.637 2°56.016 12.1752 1.052382 6.826635 -2.458615
2012-03-06 07:50:39 51°13.637 2°56.015 12.1774 1.052279 6.825915 -2.458615
2012-03-06 07:50:44 51°13.638 2°56.016 12.1783 1.052382 6.826635 -2.458615
2012-03-06 07:50:49 51°13.638 2°56.017 12.1738 1.052279 6.826043 -2.458615
2012-03-06 07:50:54 51°13.638 2°56.017 12.1683 1.052279 6.826043 -2.458615
2012-03-06 07:50:59 51°13.638 2°56.017 12.1747 1.052279 6.826043 -2.458615
2012-03-06 07:51:04 51°13.638 2°56.018 12.1796 1.052279 6.826043 -2.458615
2012-03-06 07:51:09 51°13.638 2°56.017 12.1776 1.052279 6.826043 -2.458615
2012-03-06 07:51:14 51°13.638 2°56.017 12.1644 1.052279 6.826171 -2.458615
2012-03-06 07:51:19 51°13.638 2°56.017 12.1795 1.052279 6.826171 -2.458615
2012-03-06 07:51:24 51°13.638 2°56.016 12.1769 1.052279 6.826171 -2.458615
2012-03-06 07:51:29 51°13.638 2°56.016 12.1707 1.052279 6.826171 -2.458615
2012-03-06 07:51:34 51°13.638 2°56.016 12.1713 1.052279 6.826171 -2.458615
2012-03-06 07:51:39 51°13.638 2°56.016 12.1737 1.052279 6.826171 -2.458615
2012-03-06 07:51:44 51°13.638 2°56.016 12.1779 1.052279 6.826171 -2.458615
2012-03-06 07:51:49 51°13.637 2°56.016 12.1829 1.052176 6.825579 -2.458615
2012-03-06 07:51:54 51°13.637 2°56.015 12.1906 1.052176 6.825579 -2.458615
2012-03-06 07:51:59 51°13.636 2°56.015 12.1947 1.052176 6.825579 -2.458615
2012-03-06 07:52:04 51°13.636 2°56.015 12.192 1.052176 6.825707 -2.458615
2012-03-06 07:52:09 51°13.637 2°56.015 12.1887 1.052176 6.825707 -2.458615
2012-03-06 07:52:14 51°13.637 2°56.015 12.1912 1.052176 6.825707 -2.458615
2012-03-06 07:52:19 51°13.637 2°56.016 12.1906 1.052176 6.825835 -2.458615
2012-03-06 07:52:24 51°13.637 2°56.016 12.1858 1.052176 6.825835 -2.458615
2012-03-06 07:52:29 51°13.637 2°56.016 12.1848 1.052176 6.825835 -2.458615
2012-03-06 07:52:34 51°13.638 2°56.016 12.1862 1.052176 6.825835 -2.458615
2012-03-06 07:52:39 51°13.637 2°56.016 12.1999 1.052176 6.825963 -2.458615
2012-03-06 07:52:44 51°13.637 2°56.016 12.2006 1.052176 6.825963 -2.458615
2012-03-06 07:52:49 51°13.637 2°56.015 12.1996 1.052176 6.825963 -2.458615
2012-03-06 07:52:54 51°13.637 2°56.015 12.1982 1.052176 6.825963 -2.458615
2012-03-06 07:52:59 51°13.637 2°56.015 12.1937 1.052176 6.826091 -2.458615
2012-03-06 07:53:04 51°13.637 2°56.015 12.1928 1.052176 6.826091 -2.458615
2012-03-06 07:53:09 51°13.637 2°56.015 12.1918 1.052176 6.826091 -2.458615
2012-03-06 07:53:14 51°13.637 2°56.016 12.1932 1.052176 6.826091 -2.458615
2012-03-06 07:53:19 51°13.637 2°56.016 12.1943 1.052176 6.826091 -2.458615
2012-03-06 07:53:24 51°13.637 2°56.016 12.1951 1.052176 6.826091 -2.458615
2012-03-06 07:53:29 51°13.637 2°56.016 12.1908 1.052073 6.825499 -2.458615
2012-03-06 07:53:34 51°13.637 2°56.016 12.1973 1.052073 6.825499 -2.458615
2012-03-06 07:53:39 51°13.637 2°56.016 12.1988 1.052073 6.825627 -2.458615
2012-03-06 07:53:44 51°13.637 2°56.016 12.2003 1.052073 6.825627 -2.458615
2012-03-06 07:53:49 51°13.637 2°56.016 12.2077 1.052073 6.825755 -2.458615
2012-03-06 07:53:54 51°13.637 2°56.016 12.2057 1.052073 6.825755 -2.458615
2012-03-06 07:53:59 51°13.637 2°56.016 12.2103 1.052073 6.825755 -2.458615
2012-03-06 07:54:04 51°13.637 2°56.016 12.2062 1.052073 6.825883 -2.458615
2012-03-06 07:54:09 51°13.636 2°56.016 12.2019 1.052073 6.825883 -2.458615
2012-03-06 07:54:14 51°13.637 2°56.016 12.2031 1.052073 6.825883 -2.458615
2012-03-06 07:54:19 51°13.637 2°56.016 12.2032 1.052073 6.825883 -2.458615
2012-03-06 07:54:24 51°13.637 2°56.016 12.2065 1.052073 6.825883 -2.458615
2012-03-06 07:54:29 51°13.636 2°56.016 12.2059 1.052073 6.826011 -2.458615
2012-03-06 07:54:34 51°13.637 2°56.016 12.2104 1.052073 6.826011 -2.458615
2012-03-06 07:54:39 51°13.636 2°56.016 12.2114 1.052073 6.826139 -2.458615
2012-03-06 07:54:44 51°13.636 2°56.016 12.2109 1.052073 6.826139 -2.458615
2012-03-06 07:54:49 51°13.636 2°56.016 12.2103 1.052073 6.826139 -2.458615
2012-03-06 07:54:54 51°13.636 2°56.016 12.2097 1.052073 6.826139 -2.458615
2012-03-06 07:54:59 51°13.636 2°56.016 12.2087 1.052073 6.826139 -2.458615
2012-03-06 07:55:04 51°13.637 2°56.016 12.2097 1.052073 6.826139 -2.458615
2012-03-06 07:55:09 51°13.637 2°56.016 12.209 1.05197 6.825547 -2.458615
2012-03-06 07:55:14 51°13.637 2°56.016 12.2101 1.05197 6.825547 -2.458615
2012-03-06 07:55:19 51°13.636 2°56.016 12.2112 1.05197 6.825675 -2.458615
2012-03-06 07:55:24 51°13.636 2°56.015 12.2104 1.05197 6.825675 -2.458615
2012-03-06 07:55:29 51°13.636 2°56.016 12.2122 1.05197 6.825675 -2.458615
2012-03-06 07:55:34 51°13.635 2°56.016 12.2137 1.05197 6.825803 -2.458615
2012-03-06 07:55:39 51°13.635 2°56.016 12.2132 1.05197 6.825675 -2.458615
2012-03-06 07:55:44 51°13.635 2°56.016 12.213 1.05197 6.825803 -2.458615
2012-03-06 07:55:49 51°13.635 2°56.016 12.2165 1.05197 6.825803 -2.458615
2012-03-06 07:55:54 51°13.635 2°56.016 12.2155 1.05197 6.825803 -2.458615
2012-03-06 07:55:59 51°13.635 2°56.016 12.2165 1.05197 6.825931 -2.458615
2012-03-06 07:56:04 51°13.635 2°56.016 12.2146 1.05197 6.825931 -2.458615
2012-03-06 07:56:09 51°13.635 2°56.016 12.215 1.05197 6.825931 -2.458615
2012-03-06 07:56:14 51°13.635 2°56.016 12.2157 1.05197 6.825931 -2.458615
2012-03-06 07:56:19 51°13.634 2°56.016 12.2159 1.05197 6.826059 -2.458615
2012-03-06 07:56:24 51°13.634 2°56.016 12.2151 1.05197 6.826059 -2.458615
2012-03-06 07:56:29 51°13.634 2°56.015 12.2157 1.05197 6.826187 -2.458615
2012-03-06 07:56:34 51°13.634 2°56.015 12.2185 1.05197 6.826187 -2.458615
2012-03-06 07:56:39 51°13.634 2°56.016 12.2176 1.051867 6.825466 -2.458615
2012-03-06 07:56:44 51°13.634 2°56.016 12.2171 1.051867 6.825466 -2.458615
2012-03-06 07:56:49 51°13.634 2°56.015 12.2154 1.051867 6.825594 -2.458615
2012-03-06 07:56:53 51°13.634 2°56.015 12.2064 1.051867 6.825594 -2.458615
2012-03-06 07:56:59 51°13.635 2°56.015 12.0872 1.051867 6.825466 -2.458615
2012-03-06 07:57:04 51°13.635 2°56.013 12.1206 1.051764 6.824618 -2.458615
2012-03-06 07:57:09 51°13.636 2°56.011 12.1241 1.051867 6.82521 -2.458615
2012-03-06 07:57:14 51°13.637 2°56.006 12.11 1.051558 6.822537 -2.458615
2012-03-06 07:57:19 51°13.638 2°56.001 12.1263 1.051558 6.822281 -2.458615
2012-03-06 07:57:24 51°13.64 2°55.994 12.1298 1.051558 6.822281 -2.458615
2012-03-06 07:57:29 51°13.643 2°55.986 12.1393 1.051351 6.820713 -2.458615
2012-03-06 07:57:34 51°13.645 2°55.977 12.1668 1.051558 6.822153 -2.458615
2012-03-06 07:57:39 51°13.648 2°55.967 12.1537 1.051558 6.822281 -2.458615
2012-03-06 07:57:44 51°13.65 2°55.956 12.1685 1.051454 6.821561 -2.458615
2012-03-06 07:57:49 51°13.653 2°55.945 12.1597 1.051351 6.820713 -2.458615
2012-03-06 07:57:54 51°13.655 2°55.934 12.1693 1.051351 6.820713 -2.458615
2012-03-06 07:57:59 51°13.658 2°55.924 12.1938 1.051454 6.821433 -2.458615
2012-03-06 07:58:04 51°13.66 2°55.913 12.1968 1.051558 6.822409 -2.458615
2012-03-06 07:58:09 51°13.662 2°55.902 12.2023 1.051558 6.822537 -2.458615
2012-03-06 07:58:14 51°13.664 2°55.894 12.2067 1.051661 6.823257 -2.458615
2012-03-06 07:58:19 51°13.666 2°55.887 12.1803 1.051867 6.824698 -2.458615
2012-03-06 07:58:24 51°13.667 2°55.883 12.2016 1.051867 6.824698 -2.458615
2012-03-06 07:58:29 51°13.668 2°55.88 12.1993 1.051764 6.824234 -2.458615
2012-03-06 07:58:33 51°13.668 2°55.878 12.1447 1.051867 6.825082 -2.458615
2012-03-06 07:58:39 51°13.669 2°55.876 12.0628 1.051455 6.822201 -2.458615
2012-03-06 07:58:44 51°13.67 2°55.872 12.1031 1.051455 6.822073 -2.458615
2012-03-06 07:58:49 51°13.671 2°55.868 12.1429 1.051145 6.819784 -2.458615
2012-03-06 07:58:54 51°13.672 2°55.863 12.1382 1.051145 6.819784 -2.458615
2012-03-06 07:58:59 51°13.673 2°55.857 12.1203 1.050115 6.812581 -2.458615
2012-03-06 07:59:04 51°13.674 2°55.851 12.1226 1.050733 6.816775 -2.458615
2012-03-06 07:59:09 51°13.676 2°55.844 12.1299 1.050321 6.814021 -2.458615
2012-03-06 07:59:14 51°13.677 2°55.837 12.137 1.050939 6.818343 -2.458615
2012-03-06 07:59:19 51°13.679 2°55.829 12.1342 1.05063 6.816054 -2.458615
2012-03-06 07:59:24 51°13.682 2°55.821 12.1423 1.05063 6.816054 -2.458615
2012-03-06 07:59:29 51°13.684 2°55.813 12.1456 1.051042 6.819063 -2.458615
2012-03-06 07:59:34 51°13.687 2°55.805 12.1475 1.050939 6.818471 -2.458615
2012-03-06 07:59:39 51°13.69 2°55.796 12.147 1.050321 6.814149 -2.458615
2012-03-06 07:59:44 51°13.693 2°55.788 12.1469 1.050424 6.81487 -2.458615
2012-03-06 07:59:49 51°13.696 2°55.779 12.1522 1.050733 6.81703 -2.458615
2012-03-06 07:59:54 51°13.7 2°55.77 12.152 1.050733 6.81703 -2.458615
2012-03-06 07:59:59 51°13.703 2°55.761 12.1497 1.050733 6.81703 -2.458615
2012-03-06 08:00:04 51°13.707 2°55.753 12.1656 1.050115 6.812709 -2.458615
2012-03-06 08:00:09 51°13.711 2°55.745 12.1591 1.051351 6.82148 -2.458615
2012-03-06 08:00:14 51°13.715 2°55.736 12.1587 1.050424 6.815125 -2.458615
2012-03-06 08:00:19 51°13.719 2°55.728 12.1482 1.05063 6.816566 -2.458615
2012-03-06 08:00:24 51°13.723 2°55.719 12.1506 1.05063 6.816566 -2.458615
2012-03-06 08:00:29 51°13.728 2°55.711 12.1557 1.049909 6.811524 -2.458615
2012-03-06 08:00:34 51°13.733 2°55.703 12.1709 1.050527 6.815973 -2.458615
2012-03-06 08:00:39 51°13.738 2°55.695 12.1677 1.050218 6.81394 -2.458615
2012-03-06 08:00:44 51°13.743 2°55.688 12.165 1.050424 6.815381 -2.458615
2012-03-06 08:00:49 51°13.749 2°55.68 12.1652 1.050527 6.816101 -2.458615
2012-03-06 08:00:54 51°13.754 2°55.673 12.1714 1.050527 6.816101 -2.458615
2012-03-06 08:00:59 51°13.761 2°55.667 12.1757 1.050527 6.816229 -2.458615
2012-03-06 08:01:04 51°13.767 2°55.661 12.1766 1.051248 6.8214 -2.458615
2012-03-06 08:01:09 51°13.773 2°55.654 12.176 1.050836 6.818646 -2.458615
2012-03-06 08:01:14 51°13.779 2°55.649 12.1725 1.050733 6.817926 -2.458615
2012-03-06 08:01:19 51°13.786 2°55.645 12.1785 1.050527 6.816485 -2.458615
2012-03-06 08:01:24 51°13.793 2°55.64 12.1735 1.050527 6.816485 -2.458615
2012-03-06 08:01:29 51°13.8 2°55.636 12.1726 1.050939 6.819367 -2.458615
2012-03-06 08:01:34 51°13.808 2°55.634 12.1742 1.050321 6.815044 -2.458615
2012-03-06 08:01:39 51°13.816 2°55.631 12.1777 1.050836 6.818774 -2.458615
2012-03-06 08:01:44 51°13.824 2°55.628 12.1775 1.050733 6.818054 -2.458615
2012-03-06 08:01:49 51°13.831 2°55.626 12.1753 1.050836 6.818902 -2.458615
2012-03-06 08:01:54 51°13.839 2°55.625 12.1737 1.050836 6.818902 -2.458615
2012-03-06 08:01:59 51°13.848 2°55.625 12.1706 1.050733 6.818182 -2.458615
2012-03-06 08:02:04 51°13.856 2°55.624 12.1749 1.050733 6.81831 -2.458615
2012-03-06 08:02:09 51°13.864 2°55.624 12.1731 1.050424 6.816276 -2.458615
2012-03-06 08:02:14 51°13.873 2°55.624 12.18 1.050733 6.818437 -2.458615
2012-03-06 08:02:19 51°13.881 2°55.624 12.1885 1.051145 6.821447 -2.458615
2012-03-06 08:02:24 51°13.889 2°55.625 12.1993 1.051145 6.821447 -2.458615
2012-03-06 08:02:29 51°13.896 2°55.626 12.1944 1.051249 6.822424 -2.458615
2012-03-06 08:02:34 51°13.904 2°55.628 12.1869 1.050836 6.819542 -2.458615
2012-03-06 08:02:39 51°13.911 2°55.63 12.1835 1.050939 6.82039 -2.458615
2012-03-06 08:02:44 51°13.917 2°55.633 12.1766 1.05063 6.818357 -2.458615
2012-03-06 08:02:49 51°13.923 2°55.636 12.1744 1.051042 6.821239 -2.458615
2012-03-06 08:02:54 51°13.929 2°55.639 12.1727 1.051042 6.821239 -2.458615
2012-03-06 08:02:59 51°13.935 2°55.643 12.1766 1.050939 6.820646 -2.458615
2012-03-06 08:03:04 51°13.94 2°55.646 12.1835 1.051146 6.822087 -2.458615
2012-03-06 08:03:09 51°13.945 2°55.65 12.1949 1.051146 6.822215 -2.458615
2012-03-06 08:03:14 51°13.949 2°55.654 12.1952 1.051249 6.822936 -2.458615
2012-03-06 08:03:19 51°13.954 2°55.657 12.198 1.050939 6.820902 -2.458615
2012-03-06 08:03:24 51°13.958 2°55.661 12.1839 1.050939 6.820902 -2.458615
2012-03-06 08:03:29 51°13.961 2°55.663 12.1919 1.051146 6.822344 -2.458615
2012-03-06 08:03:34 51°13.962 2°55.665 12.1957 1.051249 6.823192 -2.458615
2012-03-06 08:03:39 51°13.964 2°55.667 12.1947 1.051146 6.822472 -2.458615
2012-03-06 08:03:44 51°13.966 2°55.668 12.1954 1.051146 6.8226 -2.458615
2012-03-06 08:03:49 51°13.966 2°55.668 12.2008 1.051249 6.82332 -2.458615
2012-03-06 08:03:54 51°13.967 2°55.668 12.2037 1.051249 6.82332 -2.458615
2012-03-06 08:03:59 51°13.967 2°55.666 12.1939 1.051249 6.823448 -2.458615
2012-03-06 08:04:04 51°13.966 2°55.663 12.1443 1.051043 6.822007 -2.458615
2012-03-06 08:04:09 51°13.966 2°55.659 11.9501 1.048776 6.806027 -2.458615
2012-03-06 08:04:14 51°13.966 2°55.653 12.0138 0.937843 6.032987 -2.458615
2012-03-06 08:04:19 51°13.966 2°55.647 11.9962 0.884496 5.66435 -2.458615
2012-03-06 08:04:24 51°13.968 2°55.641 11.9674 0.884496 5.66435 -2.458615
2012-03-06 08:04:29 51°13.969 2°55.633 12.043 0.664785 4.169539 -2.458615
2012-03-06 08:04:34 51°13.972 2°55.626 12.0475 0.82055 5.225259 -2.458615
2012-03-06 08:04:39 51°13.975 2°55.617 12.0636 0.824463 5.252113 -2.458615
2012-03-06 08:04:44 51°13.979 2°55.609 12.0703 0.820962 5.228172 -2.458615
2012-03-06 08:04:49 51°13.983 2°55.6 12.0518 0.800678 5.089547 -2.458615
2012-03-06 08:04:54 51°13.989 2°55.591 12.0728 0.800678 5.089547 -2.458615
2012-03-06 08:04:59 51°13.994 2°55.58 12.0369 0.740242 4.678582 -2.458615
2012-03-06 08:05:04 51°14 2°55.57 12.0172 0.660462 4.140683 -2.458615
2012-03-06 08:05:09 51°14.006 2°55.559 12.0226 0.64389 4.029624 -2.458615
2012-03-06 08:05:14 51°14.013 2°55.549 11.9829 0.632259 3.951674 -2.458615
2012-03-06 08:05:19 51°14.021 2°55.538 11.9552 0.583987 3.629894 -2.458615
2012-03-06 08:05:24 51°14.029 2°55.528 11.9926 0.583987 3.629894 -2.458615
2012-03-06 08:05:29 51°14.037 2°55.518 11.9699 0.553421 3.42683 -2.458615
2012-03-06 08:05:34 51°14.046 2°55.508 12.0115 0.538499 3.327826 -2.458615
2012-03-06 08:05:39 51°14.055 2°55.498 12.0179 0.535206 3.305811 -2.458615
2012-03-06 08:05:44 51°14.064 2°55.488 12.0262 0.533354 3.2933 -2.458615
2012-03-06 08:05:49 51°14.074 2°55.479 12.0529 0.529958 3.270755 -2.458615
2012-03-06 08:05:54 51°14.084 2°55.469 12.0125 0.529958 3.270755 -2.458615
2012-03-06 08:05:59 51°14.094 2°55.46 12.0416 0.527179 3.252286 -2.458615
2012-03-06 08:06:04 51°14.105 2°55.45 11.9992 0.523886 3.230263 -2.458615
2012-03-06 08:06:09 51°14.115 2°55.44 12.0378 0.522445 3.22061 -2.458615
2012-03-06 08:06:14 51°14.125 2°55.429 11.9045 0.520284 3.206048 -2.458615
2012-03-06 08:06:19 51°14.136 2°55.418 12.0388 0.517917 3.189606 -2.458615
2012-03-06 08:06:24 51°14.147 2°55.408 12.0542 0.517917 3.189606 -2.458615
2012-03-06 08:06:29 51°14.157 2°55.398 11.8934 0.517609 3.187341 -2.458615
2012-03-06 08:06:34 51°14.168 2°55.387 11.8646 0.515653 3.173559 -2.458615
2012-03-06 08:06:39 51°14.179 2°55.376 11.9276 0.515139 3.169356 -2.458615
2012-03-06 08:06:44 51°14.189 2°55.364 11.9664 0.514213 3.162692 -2.458615
2012-03-06 08:06:49 51°14.2 2°55.353 11.9809 0.514213 3.162398 -2.458615
2012-03-06 08:06:54 51°14.211 2°55.342 12.0001 0.514213 3.162398 -2.458615
2012-03-06 08:06:59 51°14.222 2°55.33 12.0104 0.514316 3.163131 -2.458615
2012-03-06 08:07:04 51°14.232 2°55.319 12.0119 0.514213 3.162751 -2.458615
2012-03-06 08:07:09 51°14.243 2°55.307 11.9562 0.513595 3.158408 -2.458615
2012-03-06 08:07:14 51°14.253 2°55.295 11.9341 0.513081 3.154154 -2.458615
2012-03-06 08:07:19 51°14.264 2°55.283 11.9348 0.513287 3.155327 -2.458615
2012-03-06 08:07:24 51°14.275 2°55.272 11.9702 0.513287 3.155327 -2.458615
2012-03-06 08:07:29 51°14.286 2°55.261 11.9126 0.513287 3.155385 -2.458615
2012-03-06 08:07:34 51°14.297 2°55.248 11.8432 0.512978 3.153069 -2.458615
2012-03-06 08:07:39 51°14.308 2°55.236 11.873 0.512772 3.151192 -2.458615
2012-03-06 08:07:44 51°14.32 2°55.226 11.907 0.512875 3.15169 -2.458615
2012-03-06 08:07:49 51°14.333 2°55.215 11.9138 0.512772 3.151075 -2.458615
2012-03-06 08:07:53 51°14.342 2°55.206 11.9419 0.512772 3.151075 -2.458615
2012-03-06 08:07:59 51°14.356 2°55.192 11.9185 0.509788 3.131412 -2.458615
2012-03-06 08:08:04 51°14.367 2°55.18 11.8214 0.4712 2.878939 -2.458615
2012-03-06 08:08:09 51°14.378 2°55.167 11.8917 0.439921 2.675546 -2.458615
2012-03-06 08:08:13 51°14.388 2°55.159 11.886 0.484989 2.968025 -2.458615
2012-03-06 08:08:18 51°14.4 2°55.148 11.8688 0.406277 2.458233 -2.458615
2012-03-06 08:08:24 51°14.414 2°55.134 11.8494 0.406277 2.458233 -2.458615
2012-03-06 08:08:29 51°14.427 2°55.123 11.8033 0.363582 2.184529 -2.458615
2012-03-06 08:08:33 51°14.437 2°55.114 11.8055 0.314307 1.871909 -2.458615
2012-03-06 08:08:39 51°14.45 2°55.099 11.7582 0.314719 1.874399 -2.458615
2012-03-06 08:08:44 51°14.462 2°55.087 11.8504 0.283346 1.677234 -2.458615
2012-03-06 08:08:49 51°14.474 2°55.076 11.7965 0.280568 1.659924 -2.458615
2012-03-06 08:08:54 51°14.486 2°55.064 11.7547 0.280568 1.659924 -2.458615
2012-03-06 08:08:59 51°14.498 2°55.052 11.8069 0.25074 1.47424 -2.458615
2012-03-06 08:09:04 51°14.51 2°55.04 11.8043 0.258249 1.520872 -2.458615
2012-03-06 08:09:09 51°14.521 2°55.028 11.8101 0.212275 1.236542 -2.458615
2012-03-06 08:09:13 51°14.531 2°55.018 11.8148 0.173709 1.001237 -2.458615
2012-03-06 08:09:18 51°14.543 2°55.006 11.8267 0.204973 1.191178 -2.458615
2012-03-06 08:09:23 51°14.555 2°54.994 11.8443 0.204973 1.191178 -2.458615
2012-03-06 08:09:28 51°14.567 2°54.981 11.8122 0.230787 1.349895 -2.458615
2012-03-06 08:09:33 51°14.578 2°54.967 11.8593 0.218548 1.274888 -2.458615
2012-03-06 08:09:37 51°14.587 2°54.956 11.8386 0.134118 0.763997 -2.458615
2012-03-06 08:09:42 51°14.599 2°54.942 11.7596 0.206721 1.20216 -2.458615
2012-03-06 08:09:47 51°14.61 2°54.927 11.7396 0.116226 0.657513 -2.458615
2012-03-06 08:09:52 51°14.621 2°54.912 11.7754 0.116226 0.657513 -2.458615
2012-03-06 08:09:57 51°14.631 2°54.897 11.7351 0.093194 0.522538 -2.458615
2012-03-06 08:10:01 51°14.641 2°54.884 11.7415 0.106046 0.597867 -2.458615
2012-03-06 08:10:06 51°14.652 2°54.869 11.7682 0.089698 0.502443 -2.458615
2012-03-06 08:10:11 51°14.663 2°54.853 11.7567 0.082192 0.45889 -2.458615
2012-03-06 08:10:16 51°14.674 2°54.837 11.7736 0.054534 0.300576 -2.458615
2012-03-06 08:10:21 51°14.685 2°54.822 11.7104 0.054534 0.300576 -2.458615
2012-03-06 08:10:25 51°14.694 2°54.809 11.7122 0.06389 0.353735 -2.458615
2012-03-06 08:10:30 51°14.705 2°54.794 11.7679 0.059777 0.330114 -2.458615
2012-03-06 08:10:36 51°14.719 2°54.776 11.7333 0.046103 0.252742 -2.458615
2012-03-06 08:10:41 51°14.731 2°54.762 11.765 0.08651 0.48398 -2.458615
2012-03-06 08:10:45 51°14.741 2°54.751 11.7878 0.058235 0.321799 -2.458615
2012-03-06 08:10:51 51°14.755 2°54.734 11.7682 0.058235 0.321799 -2.458615
2012-03-06 08:10:56 51°14.767 2°54.72 11.7771 0.055254 0.304833 -2.458615
2012-03-06 08:11:01 51°14.778 2°54.705 11.7307 0.044458 0.243882 -2.458615
2012-03-06 08:11:05 51°14.788 2°54.693 11.775 0.047542 0.261237 -2.458615
2012-03-06 08:11:11 51°14.802 2°54.675 11.7283 0.051963 0.286248 -2.458615
2012-03-06 08:11:16 51°14.814 2°54.66 11.7294 0.046823 0.257437 -2.458615
2012-03-06 08:11:21 51°14.825 2°54.645 11.761 0.046823 0.257437 -2.458615
2012-03-06 08:11:25 51°14.835 2°54.633 11.7467 0.039832 0.218283 -2.458615
2012-03-06 08:11:31 51°14.849 2°54.614 11.7481 0.037261 0.204049 -2.458615
2012-03-06 08:11:36 51°14.862 2°54.6 11.7202 0.036747 0.201315 -2.458615
2012-03-06 08:11:41 51°14.873 2°54.585 11.7466 0.039934 0.219026 -2.458615
2012-03-06 08:11:45 51°14.882 2°54.572 11.7465 0.037261 0.204024 -2.458615
2012-03-06 08:11:50 51°14.896 2°54.56 11.7566 0.037261 0.204024 -2.458615
2012-03-06 08:11:56 51°14.911 2°54.544 11.7588 0.040037 0.219434 -2.458615
2012-03-06 08:12:01 51°14.924 2°54.532 11.7641 0.044561 0.244773 -2.458615
2012-03-06 08:12:05 51°14.934 2°54.523 11.7612 0.037981 0.208042 -2.458615
2012-03-06 08:12:11 51°14.951 2°54.51 11.7538 0.039215 0.214945 -2.458615
2012-03-06 08:12:16 51°14.964 2°54.501 11.772 0.041682 0.228767 -2.458615
2012-03-06 08:12:21 51°14.978 2°54.492 11.7764 0.041682 0.228767 -2.458615
2012-03-06 08:12:25 51°14.99 2°54.486 11.7152 0.046926 0.258185 -2.458615
2012-03-06 08:12:31 51°15.006 2°54.479 11.7716 0.044664 0.24545 -2.458615
2012-03-06 08:12:36 51°15.02 2°54.473 11.7375 0.040962 0.224762 -2.458615
2012-03-06 08:12:41 51°15.034 2°54.469 11.7624 0.053506 0.29539 -2.458615
2012-03-06 08:12:45 51°15.044 2°54.465 11.7663 0.041682 0.228747 -2.458615
2012-03-06 08:12:48 51°13.592 2°56.194 12.1476 1.053 6.829804 -2.458615
2012-03-06 08:12:48 51°13.592 2°56.194 12.1517 1.053 6.829804 -2.458615
2012-03-06 08:12:48 51°13.592 2°56.194 12.161 1.053 6.829804 -2.458615
2012-03-06 08:12:48 51°13.592 2°56.194 12.1631 1.053 6.829804 -2.458615
2012-03-06 08:12:48 51°13.592 2°56.194 12.1504 1.053 6.829804 -2.458615
2012-03-06 08:12:48 51°13.592 2°56.194 12.1724 1.053 6.829804 -2.458615
2012-03-06 08:12:48 51°13.592 2°56.194 12.1653 1.053 6.829804 -2.458615
2012-03-06 08:12:48 51°13.592 2°56.194 12.1763 1.053 6.829804 -2.458615
2012-03-06 08:12:48 51°13.592 2°56.194 12.1648 1.053 6.829804 -2.458615
2012-03-06 08:12:48 51°13.592 2°56.194 12.1699 1.053 6.829804 -2.458615
2012-03-06 08:12:48 51°13.592 2°56.194 12.1503 1.053 6.829804 -2.458615
2012-03-06 08:12:48 51°13.592 2°56.194 12.1472 1.053 6.829804 -2.458615
2012-03-06 08:12:50 51°15.058 2°54.461 11.7738 0.041682 0.228747 -2.458615
2012-03-06 08:12:56 51°15.075 2°54.456 11.727 0.047954 0.264062 -2.458615
2012-03-06 08:13:01 51°15.089 2°54.453 11.7678 0.045383 0.249577 -2.458615
2012-03-06 08:13:05 51°15.1 2°54.45 11.7602 0.032943 0.180116 -2.458615
2012-03-06 08:13:11 51°15.117 2°54.445 11.76 0.036233 0.198316 -2.458615
2012-03-06 08:13:16 51°15.131 2°54.441 11.7314 0.035719 0.19551 -2.458615
2012-03-06 08:13:21 51°15.145 2°54.437 11.7497 0.035719 0.19551 -2.458615
2012-03-06 08:13:25 51°15.156 2°54.434 11.756 0.032326 0.17684 -2.458615
2012-03-06 08:13:31 51°15.173 2°54.43 11.7549 0.037364 0.204893 -2.458615
2012-03-06 08:13:36 51°15.187 2°54.426 11.771 0.036953 0.202653 -2.458615
2012-03-06 08:13:41 51°15.201 2°54.422 11.7899 0.034177 0.187238 -2.458615
2012-03-06 08:13:45 51°15.212 2°54.418 11.7458 0.05258 0.290619 -2.458615
2012-03-06 08:13:51 51°15.228 2°54.411 11.7207 0.05258 0.290619 -2.458615
2012-03-06 08:13:56 51°15.241 2°54.406 11.7603 0.032532 0.178109 -2.458615
2012-03-06 08:14:01 51°15.255 2°54.402 11.7376 0.033149 0.181487 -2.458615
2012-03-06 08:14:05 51°15.266 2°54.398 11.7628 0.032121 0.175853 -2.458615
2012-03-06 08:14:11 51°15.282 2°54.391 11.7711 0.031504 0.172442 -2.458615
2012-03-06 08:14:16 51°15.297 2°54.386 11.7292 0.036747 0.201518 -2.458615
2012-03-06 08:14:21 51°15.31 2°54.381 11.7107 0.036747 0.201518 -2.458615
2012-03-06 08:14:25 51°15.321 2°54.377 11.7544 0.027803 0.152106 -2.458615
2012-03-06 08:14:31 51°15.338 2°54.371 11.7451 0.029345 0.160539 -2.458615
2012-03-06 08:14:36 51°15.351 2°54.366 11.7384 0.024513 0.133978 -2.458615
2012-03-06 08:14:41 51°15.365 2°54.362 11.749 0.027905 0.152567 -2.458615
2012-03-06 08:14:45 51°15.377 2°54.359 11.7618 0.031504 0.17262 -2.458615
2012-03-06 08:14:51 51°15.393 2°54.355 11.7178 0.031504 0.17262 -2.458615
2012-03-06 08:14:56 51°15.407 2°54.353 11.742 0.026775 0.146778 -2.458615
2012-03-06 08:15:01 51°15.421 2°54.351 11.7264 0.026055 0.142678 -2.458615
2012-03-06 08:15:05 51°15.433 2°54.35 11.7477 0.030476 0.167013 -2.458615
2012-03-06 08:15:11 51°15.45 2°54.35 11.7457 0.029653 0.162531 -2.458615
2012-03-06 08:15:16 51°15.464 2°54.35 11.7542 0.027597 0.151242 -2.458615
2012-03-06 08:15:21 51°15.477 2°54.349 11.7403 0.027597 0.151242 -2.458615
2012-03-06 08:15:25 51°15.489 2°54.349 11.7298 0.030065 0.164905 -2.458615
2012-03-06 08:15:30 51°15.503 2°54.348 11.7363 0.028522 0.156388 -2.458615
2012-03-06 08:15:36 51°15.52 2°54.346 11.7455 0.029653 0.16262 -2.458615
2012-03-06 08:15:41 51°15.534 2°54.344 11.7431 0.02955 0.162039 -2.458615
2012-03-06 08:15:45 51°15.546 2°54.344 11.7359 0.02698 0.147902 -2.458615
2012-03-06 08:15:51 51°15.563 2°54.34 11.7502 0.02698 0.147902 -2.458615
2012-03-06 08:15:56 51°15.577 2°54.337 11.7501 0.028008 0.153561 -2.458615
2012-03-06 08:16:01 51°15.591 2°54.333 11.7411 0.029139 0.159804 -2.458615
2012-03-06 08:16:05 51°15.602 2°54.331 11.7572 0.029859 0.163733 -2.458615
2012-03-06 08:16:11 51°15.619 2°54.326 11.7224 0.026569 0.145509 -2.458615
2012-03-06 08:16:16 51°15.633 2°54.321 11.7249 0.02513 0.137612 -2.458615
2012-03-06 08:16:21 51°15.647 2°54.317 11.7547 0.02513 0.137612 -2.458615
2012-03-06 08:16:25 51°15.658 2°54.314 11.7305 0.026569 0.145706 -2.458615
2012-03-06 08:16:30 51°15.672 2°54.311 11.7424 0.028214 0.154859 -2.458615
2012-03-06 08:16:36 51°15.689 2°54.307 11.7571 0.027597 0.151384 -2.458615
2012-03-06 08:16:41 51°15.703 2°54.304 11.7511 0.024616 0.134965 -2.458615
2012-03-06 08:16:45 51°15.714 2°54.303 11.741 0.027803 0.152484 -2.458615
2012-03-06 08:16:51 51°15.73 2°54.302 11.7426 0.027803 0.152484 -2.458615
2012-03-06 08:16:56 51°15.744 2°54.301 11.7426 0.02513 0.137839 -2.458615
2012-03-06 08:17:01 51°15.758 2°54.301 11.731 0.025644 0.140697 -2.458615
2012-03-06 08:17:05 51°15.769 2°54.303 11.7527 0.024821 0.136162 -2.458615
2012-03-06 08:17:11 51°15.785 2°54.303 11.7218 0.026055 0.142941 -2.458615
2012-03-06 08:17:16 51°15.798 2°54.305 11.7467 0.022765 0.125001 -2.458615
2012-03-06 08:17:21 51°15.812 2°54.307 11.7505 0.022765 0.125001 -2.458615
2012-03-06 08:17:25 51°15.823 2°54.309 11.7534 0.024924 0.136725 -2.458615
2012-03-06 08:17:31 51°15.839 2°54.313 11.7432 0.022868 0.125457 -2.458615
2012-03-06 08:17:36 51°15.852 2°54.316 11.7589 0.02441 0.133933 -2.458615
2012-03-06 08:17:41 51°15.866 2°54.319 11.7359 0.027906 0.153264 -2.458615
2012-03-06 08:17:45 51°15.877 2°54.321 11.7403 0.024924 0.136946 -2.458615
2012-03-06 08:17:50 51°15.89 2°54.322 11.7362 0.024924 0.136946 -2.458615
2012-03-06 08:17:56 51°15.906 2°54.324 11.7354 0.022251 0.122306 -2.458615
2012-03-06 08:18:01 51°15.92 2°54.324 11.7501 0.023793 0.1307 -2.458615
2012-03-06 08:18:05 51°15.931 2°54.325 11.7502 0.023896 0.131266 -2.458615
2012-03-06 08:18:11 51°15.947 2°54.325 11.7548 0.025747 0.141452 -2.458615
2012-03-06 08:18:16 51°15.961 2°54.324 11.7642 0.024924 0.136946 -2.458615
2012-03-06 08:18:21 51°15.975 2°54.324 11.7411 0.024924 0.136946 -2.458615
2012-03-06 08:18:25 51°15.986 2°54.323 11.7465 0.023485 0.129038 -2.458615
2012-03-06 08:18:31 51°16.002 2°54.321 11.7562 0.023793 0.130669 -2.458615
2012-03-06 08:18:36 51°16.017 2°54.321 11.7598 0.023588 0.129529 -2.458615
2012-03-06 08:18:41 51°16.03 2°54.318 11.7615 0.024204 0.132914 -2.458615
2012-03-06 08:18:45 51°16.041 2°54.317 11.7439 0.025438 0.139766 -2.458615
2012-03-06 08:18:50 51°16.055 2°54.315 11.7574 0.025438 0.139766 -2.458615
2012-03-06 08:18:56 51°16.071 2°54.311 11.744 0.023279 0.127857 -2.458615
2012-03-06 08:19:01 51°16.085 2°54.306 11.7495 0.024513 0.134608 -2.458615
2012-03-06 08:19:05 51°16.095 2°54.303 11.7398 0.024513 0.134723 -2.458615
2012-03-06 08:19:10 51°16.109 2°54.299 11.7616 0.021634 0.118971 -2.458615
2012-03-06 08:19:16 51°16.125 2°54.293 11.7535 0.022868 0.125657 -2.458615
2012-03-06 08:19:21 51°16.138 2°54.288 11.7455 0.022868 0.125657 -2.458615
2012-03-06 08:19:25 51°16.149 2°54.285 11.7505 0.021223 0.116638 -2.458615
2012-03-06 08:19:31 51°16.166 2°54.28 11.7568 0.022765 0.125038 -2.458615
2012-03-06 08:19:36 51°16.179 2°54.277 11.748 0.020606 0.113348 -2.458615
2012-03-06 08:19:41 51°16.193 2°54.275 11.7654 0.023485 0.128991 -2.458615
2012-03-06 08:19:45 51°16.203 2°54.274 11.7457 0.024821 0.136352 -2.458615
2012-03-06 08:19:51 51°16.216 2°54.274 11.7654 0.024821 0.136352 -2.458615
2012-03-06 08:19:56 51°16.227 2°54.275 11.753 0.023896 0.13135 -2.458615
2012-03-06 08:20:01 51°16.236 2°54.277 11.7661 0.024204 0.133094 -2.458615
2012-03-06 08:20:05 51°16.243 2°54.28 11.7687 0.025644 0.141016 -2.458615
2012-03-06 08:20:11 51°16.253 2°54.284 11.7691 0.026261 0.144416 -2.458615
2012-03-06 08:20:16 51°16.26 2°54.288 11.7681 0.025747 0.141646 -2.458615
2012-03-06 08:20:21 51°16.267 2°54.292 11.7709 0.025747 0.141646 -2.458615
2012-03-06 08:20:25 51°16.272 2°54.296 11.7767 0.028625 0.157617 -2.458615
2012-03-06 08:20:30 51°16.278 2°54.301 11.7809 0.02842 0.15649 -2.458615
2012-03-06 08:20:36 51°16.286 2°54.308 11.7769 0.025747 0.141718 -2.458615
2012-03-06 08:20:41 51°16.291 2°54.313 11.7649 0.028111 0.154744 -2.458615
2012-03-06 08:20:45 51°16.294 2°54.318 11.7707 0.025747 0.141692 -2.458615
2012-03-06 08:20:50 51°16.299 2°54.324 11.7693 0.025747 0.141692 -2.458615
2012-03-06 08:20:56 51°16.303 2°54.332 11.7748 0.025952 0.142823 -2.458615
2012-03-06 08:21:01 51°16.306 2°54.339 11.7728 0.025952 0.142828 -2.458615
2012-03-06 08:21:05 51°16.308 2°54.344 11.7667 0.025335 0.139441 -2.458615
2012-03-06 08:21:10 51°16.31 2°54.351 11.7706 0.026158 0.14396 -2.458615
2012-03-06 08:21:16 51°16.311 2°54.359 11.7614 0.028214 0.155337 -2.458615
2012-03-06 08:21:21 51°16.311 2°54.367 11.7691 0.028214 0.155337 -2.458615
2012-03-06 08:21:25 51°16.311 2°54.373 11.7806 0.026158 0.143982 -2.458615
2012-03-06 08:21:30 51°16.312 2°54.38 11.78 0.02842 0.156474 -2.458615
2012-03-06 08:21:36 51°16.311 2°54.386 11.786 0.030476 0.167874 -2.458615
2012-03-06 08:21:41 51°16.31 2°54.391 11.7849 0.026261 0.144561 -2.458615
2012-03-06 08:21:45 51°16.309 2°54.394 11.7692 0.026877 0.147944 -2.458615
2012-03-06 08:21:51 51°16.308 2°54.398 11.773 0.026877 0.147944 -2.458615
2012-03-06 08:21:56 51°16.306 2°54.401 11.7786 0.027803 0.153069 -2.458615
2012-03-06 08:22:01 51°16.305 2°54.403 11.7896 0.028111 0.154784 -2.458615
2012-03-06 08:22:05 51°16.304 2°54.405 11.7906 0.030373 0.167341 -2.458615
2012-03-06 08:22:11 51°16.303 2°54.405 11.7829 0.027083 0.149109 -2.458615
2012-03-06 08:22:16 51°16.302 2°54.405 11.7853 0.030373 0.167315 -2.458615
2012-03-06 08:22:21 51°16.301 2°54.406 11.7871 0.030373 0.167315 -2.458615
2012-03-06 08:22:25 51°16.301 2°54.406 11.7851 0.031607 0.174175 -2.458615
2012-03-06 08:22:31 51°16.299 2°54.406 11.7836 0.030579 0.168477 -2.458615
2012-03-06 08:22:36 51°16.298 2°54.406 11.7773 0.03027 0.166761 -2.458615
2012-03-06 08:22:41 51°16.297 2°54.406 11.7899 0.028214 0.155374 -2.458615
2012-03-06 08:22:45 51°16.296 2°54.406 11.7921 0.02955 0.162765 -2.458615
2012-03-06 08:22:50 51°16.295 2°54.406 11.7922 0.02955 0.162765 -2.458615
2012-03-06 08:22:56 51°16.294 2°54.406 11.7923 0.03284 0.181069 -2.458615
2012-03-06 08:23:01 51°16.293 2°54.406 11.7872 0.029139 0.1605 -2.458615
2012-03-06 08:23:05 51°16.292 2°54.406 11.7916 0.028625 0.15765 -2.458615
2012-03-06 08:23:10 51°16.291 2°54.406 11.7953 0.026466 0.145712 -2.458615
2012-03-06 08:23:16 51°16.289 2°54.405 11.7939 0.027289 0.150239 -2.458615
2012-03-06 08:23:21 51°16.288 2°54.405 11.7899 0.027289 0.150239 -2.458615
2012-03-06 08:23:25 51°16.287 2°54.404 11.7904 0.027186 0.149679 -2.458615
2012-03-06 08:23:31 51°16.285 2°54.404 11.7925 0.027494 0.15138 -2.458615
2012-03-06 08:23:36 51°16.284 2°54.404 11.7915 0.027494 0.15138 -2.458615
2012-03-06 08:23:41 51°16.283 2°54.404 11.7859 0.028522 0.157065 -2.458615
2012-03-06 08:23:45 51°16.282 2°54.403 11.7825 0.026672 0.146835 -2.458615
2012-03-06 08:23:51 51°16.28 2°54.403 11.789 0.026672 0.146835 -2.458615
2012-03-06 08:23:56 51°16.279 2°54.402 11.7923 0.02698 0.148539 -2.458615
2012-03-06 08:24:01 51°16.278 2°54.402 11.7965 0.030784 0.16962 -2.458615
2012-03-06 08:24:05 51°16.277 2°54.402 11.8002 0.026877 0.147992 -2.458615
2012-03-06 08:24:10 51°16.275 2°54.401 11.7982 0.025027 0.13779 -2.458615
2012-03-06 08:24:16 51°16.273 2°54.4 11.7954 0.028008 0.154226 -2.458615
2012-03-06 08:24:21 51°16.273 2°54.401 11.7978 0.028008 0.154226 -2.458615
2012-03-06 08:24:25 51°16.272 2°54.4 11.7944 0.029653 0.163341 -2.458615
2012-03-06 08:24:31 51°16.27 2°54.399 11.7915 0.027597 0.151956 -2.458615
2012-03-06 08:24:36 51°16.269 2°54.399 11.7874 0.029448 0.162201 -2.458615
2012-03-06 08:24:41 51°16.267 2°54.398 11.7987 0.027906 0.153668 -2.458615
2012-03-06 08:24:45 51°16.266 2°54.397 11.7927 0.02698 0.148562 -2.458615
2012-03-06 08:24:51 51°16.265 2°54.397 11.7896 0.02698 0.148562 -2.458615
2012-03-06 08:24:56 51°16.263 2°54.396 11.8051 0.035411 0.195466 -2.458615
2012-03-06 08:25:01 51°16.262 2°54.396 11.7929 0.035205 0.194342 -2.458615
2012-03-06 08:25:05 51°16.261 2°54.396 11.7889 0.033766 0.18628 -2.458615
2012-03-06 08:25:11 51°16.259 2°54.395 11.7994 0.028111 0.15484 -2.458615
2012-03-06 08:25:16 51°16.258 2°54.395 11.7997 0.030681 0.169098 -2.458615
2012-03-06 08:25:21 51°16.257 2°54.395 11.7898 0.030681 0.169098 -2.458615
2012-03-06 08:25:25 51°16.256 2°54.394 11.797 0.028831 0.158832 -2.458615
2012-03-06 08:25:30 51°16.255 2°54.393 11.7957 0.029756 0.16396 -2.458615
2012-03-06 08:25:36 51°16.253 2°54.393 11.7885 0.026672 0.146885 -2.458615
2012-03-06 08:25:41 51°16.252 2°54.393 11.8005 0.030065 0.16566 -2.458615
2012-03-06 08:25:45 51°16.251 2°54.392 11.7984 0.033149 0.182833 -2.458615
2012-03-06 08:25:51 51°16.249 2°54.391 11.7996 0.033149 0.182833 -2.458615
2012-03-06 08:25:56 51°16.248 2°54.391 11.7968 0.033354 0.183991 -2.458615
2012-03-06 08:26:01 51°16.246 2°54.39 11.7986 0.032224 0.177686 -2.458615
2012-03-06 08:26:05 51°16.245 2°54.39 11.8017 0.026363 0.145199 -2.458615
2012-03-06 08:26:11 51°16.244 2°54.39 11.8016 0.024102 0.132758 -2.458615
2012-03-06 08:26:16 51°16.242 2°54.389 11.7936 0.025027 0.137844 -2.458615
2012-03-06 08:26:21 51°16.241 2°54.389 11.7863 0.025027 0.137844 -2.458615
2012-03-06 08:26:25 51°16.24 2°54.388 11.7829 0.02513 0.138409 -2.458615
2012-03-06 08:26:30 51°16.239 2°54.388 11.7901 0.02441 0.134454 -2.458615
2012-03-06 08:26:36 51°16.237 2°54.387 11.7955 0.025849 0.142376 -2.458615
2012-03-06 08:26:41 51°16.235 2°54.387 11.7958 0.028214 0.155438 -2.458615
2012-03-06 08:26:45 51°16.234 2°54.387 11.7924 0.028728 0.158285 -2.458615
2012-03-06 08:26:51 51°16.233 2°54.387 11.7977 0.028728 0.158285 -2.458615
2012-03-06 08:26:56 51°16.231 2°54.386 11.7343 0.027494 0.151458 -2.458615
2012-03-06 08:27:01 51°16.23 2°54.386 11.934 0.048674 0.270461 -2.458615
2012-03-06 08:27:05 51°16.228 2°54.385 12.1338 0.052683 0.29361 -2.458615
2012-03-06 08:27:11 51°16.226 2°54.385 12.2138 0.059983 0.336289 -2.458615
2012-03-06 08:27:16 51°16.225 2°54.384 12.1758 0.06718 0.378231 -2.458615
2012-03-06 08:27:21 51°16.223 2°54.383 12.1495 0.06718 0.378231 -2.458615
2012-03-06 08:27:25 51°16.222 2°54.384 12.1209 0.07448 0.420817 -2.458615
2012-03-06 08:27:30 51°16.221 2°54.383 12.1093 0.083426 0.473412 -2.458615
2012-03-06 08:27:36 51°16.219 2°54.383 12.079 0.137923 0.799683 -2.458615
2012-03-06 08:27:41 51°16.218 2°54.382 11.9959 0.154068 0.898141 -2.458615
2012-03-06 08:27:45 51°16.217 2°54.383 11.953 0.137409 0.796684 -2.458615
2012-03-06 08:27:50 51°16.215 2°54.382 11.957 0.137409 0.796684 -2.458615
2012-03-06 08:27:56 51°16.213 2°54.381 11.9559 0.108823 0.624407 -2.458615
2012-03-06 08:28:01 51°16.212 2°54.381 11.9508 0.095045 0.542278 -2.458615